GFSFLT1_sfc_temp_000.txt.gz
Temp
63 63 63 63 63 62 62 63 63 61 61 59 58 58 60 60 60 62 62 61 61 59 59 57 57 55 54 54 53 53 52 51
63 63 63 62 61 61 59 60 62 63 57 57 55 56 58 59 58 59 60 60 59 57 55 55 54 53 52 52 51 50 51 50
61 60 59 57 58 58 58 58 59 59 57 56 57 56 56 57 60 61 59 57 58 58 53 52 52 51 50 49 49 48 49 49
60 59 56 56 57 58 60 59 58 58 58 57 56 56 57 56 56 55 56 55 55 54 52 51 50 50 48 48 48 47 45 46
59 57 56 56 56 57 59 60 60 59 58 56 55 52 52 52 51 51 51 52 53 53 52 50 49 48 47 47 49 45 45 42
56 56 58 57 56 56 57 59 59 59 58 56 53 52 51 50 49 49 50 50 51 51 50 48 48 47 46 45 45 44 43 42
56 57 58 57 56 56 56 58 59 58 56 55 54 52 50 48 47 47 47 48 49 48 49 46 45 44 43 42 42 42 41 40
55 56 56 56 55 57 57 58 59 58 55 52 51 49 48 47 47 49 49 49 48 46 45 44 43 43 43 42 41 40 40 39
54 54 55 55 55 55 55 54 53 52 51 50 50 50 51 52 52 47 49 46 45 44 44 44 44 44 42 41 40 39 38 37
54 53 54 54 54 52 55 56 54 52 52 51 52 53 53 52 52 48 47 45 47 44 43 43 43 42 42 40 38 37 36 36
53 53 52 52 53 55 56 55 52 51 51 52 54 54 52 48 46 44 44 44 45 44 43 42 42 41 40 39 37 36 36 35
51 51 51 51 52 52 51 50 51 50 49 50 49 48 47 46 44 45 44 44 45 46 45 43 42 41 39 37 36 36 35 34
51 50 51 50 49 49 48 48 49 49 48 48 47 47 47 45 44 43 43 43 43 43 44 43 41 39 38 36 35 35 34 33
48 48 49 48 48 48 47 46 46 47 47 46 46 47 45 43 43 44 43 42 43 44 43 41 40 39 38 35 34 33 31 31
48 47 47 46 47 46 46 45 45 45 45 44 44 45 46 42 41 41 42 43 43 42 42 41 40 38 36 35 33 31 31 31
49 47 45 45 45 45 45 44 45 45 44 43 42 41 41 42 43 42 41 40 43 42 41 39 37 37 35 31 32 31 30 30
47 46 46 46 45 43 45 44 44 44 42 42 43 42 42 41 41 40 39 39 40 41 38 36 34 37 35 35 32 29 30 29
45 45 46 45 43 44 43 43 44 43 42 42 42 41 40 39 40 39 38 38 41 38 36 34 32 31 35 35 34 29 28 26
45 46 45 44 43 43 43 43 42 41 40 41 40 40 39 39 38 38 38 40 38 34 31 32 31 33 35 35 33 28 28 27

GFSFLT1_sfc_temp_006.txt.gz
Temp
55 55 56 56 58 60 59 59 58 58 57 57 56 54 54 54 54 54 56 58 57 56 53 51 50 49 48 48 48 48 48 47
54 55 55 56 55 56 57 57 57 57 54 53 53 53 53 55 54 54 54 56 52 50 49 49 48 47 46 47 46 46 46 45
55 55 54 54 54 55 56 56 55 56 54 52 54 53 53 52 53 51 50 51 51 51 48 47 47 46 45 44 43 44 44 43
54 54 52 53 53 53 55 55 55 55 54 53 52 52 51 50 48 47 48 49 49 48 48 46 45 44 43 42 42 42 40 41
54 53 53 53 51 53 54 55 55 55 54 53 53 50 48 46 46 46 46 48 48 48 47 45 44 43 42 42 43 41 41 37
55 53 53 52 54 52 52 54 55 54 53 51 49 46 45 45 45 46 46 47 47 47 46 44 43 42 41 41 39 39 39 37
52 53 55 54 51 51 51 52 50 50 49 48 48 46 45 45 46 46 46 46 45 45 45 42 41 41 40 39 39 38 37 36
50 53 52 48 48 49 50 49 48 48 48 48 47 47 47 47 46 44 44 44 44 42 41 41 40 41 42 40 38 37 36 35
48 47 47 48 48 48 48 48 48 48 47 47 46 46 45 45 45 44 44 42 41 41 41 41 41 44 41 42 40 36 36 34
46 47 48 47 47 46 47 47 47 46 46 45 44 44 44 43 43 42 41 41 43 40 40 42 42 40 40 39 37 39 36 35
46 47 46 46 46 45 47 47 44 44 43 43 44 43 43 41 40 40 40 40 42 43 41 42 42 41 42 40 36 36 35 34
45 45 45 46 48 48 47 44 44 43 43 42 42 41 41 40 39 39 38 39 41 41 42 42 39 39 38 36 35 35 34 33
45 46 47 48 46 46 43 44 44 43 42 41 40 40 40 39 38 38 38 39 39 41 40 39 38 37 36 35 34 34 33 32
44 44 46 46 44 43 45 45 43 41 40 39 39 38 38 37 37 38 38 37 38 38 39 37 37 36 35 34 33 33 32 31
43 44 45 43 44 45 44 42 41 41 39 38 38 37 37 36 37 36 37 37 37 39 37 36 36 36 35 34 33 31 31 31
43 43 41 45 44 42 42 41 41 40 39 39 38 38 37 37 36 36 36 36 40 36 35 35 34 35 35 32 32 31 30 29
46 45 46 44 43 41 41 40 40 40 39 38 39 38 37 36 36 36 35 39 37 34 33 33 32 35 36 36 35 30 30 29
46 46 46 44 41 41 39 40 39 39 38 38 38 37 36 35 35 34 34 34 34 33 32 32 30 30 35 35 32 28 27 26
45 44 42 42 40 39 39 39 38 37 37 37 37 36 35 34 34 34 33 33 33 31 30 29 29 32 34 32 31 26 26 26

GFSFLT1_sfc_temp_009.txt.gz
Temp
61 62 63 64 65 65 64 65 63 61 59 60 61 64 63 64 62 60 63 65 63 64 63 62 64 63 62 63 61 62 60 59
62 61 63 63 64 65 64 64 63 64 63 63 63 63 62 59 65 63 62 63 63 62 63 63 62 62 60 61 62 59 60 58
60 61 63 65 64 64 63 64 65 67 68 67 66 64 63 63 62 60 61 60 61 62 61 62 61 61 59 58 58 58 58 56
60 60 61 62 62 63 64 65 66 66 65 65 64 63 63 62 61 61 61 61 63 62 61 61 60 59 58 56 55 54 54 55
61 60 60 61 60 62 64 64 65 63 63 64 63 64 62 59 60 61 62 60 60 60 59 58 57 57 54 54 54 53 52 50
61 61 63 62 61 61 61 61 61 61 61 61 61 59 59 60 60 58 58 58 58 58 57 55 54 55 52 52 51 51 52 51
60 61 62 60 60 60 59 60 59 59 60 59 59 58 58 58 57 57 57 58 58 57 55 54 53 52 52 52 51 49 50 50
59 60 59 59 58 58 58 59 57 58 57 57 56 56 56 55 55 55 54 56 57 56 53 52 52 51 50 52 51 50 50 50
58 57 57 57 56 57 57 58 56 56 56 56 56 56 56 56 54 54 54 53 54 53 52 51 50 51 51 49 50 49 49 48
56 56 56 56 56 55 56 56 56 56 55 55 53 54 53 52 52 53 52 52 52 51 50 50 51 50 50 50 49 48 48 47
54 54 54 55 55 55 54 56 55 53 54 54 53 52 52 52 52 51 51 51 51 50 50 50 50 51 50 49 49 48 46 47
53 54 54 54 54 55 54 53 55 54 54 52 52 52 51 51 51 50 50 49 50 50 50 49 50 49 49 48 47 46 45 46
54 53 53 53 54 54 51 54 54 53 52 51 51 51 50 50 49 49 49 48 49 48 47 47 47 47 47 47 46 47 45 44
52 52 52 53 52 52 53 52 52 52 52 51 51 49 48 49 48 48 48 47 47 47 47 43 45 46 46 46 44 43 42 42
52 52 52 52 52 52 51 51 51 51 51 50 49 48 48 48 47 47 47 46 46 46 44 44 45 45 45 44 43 42 41 40
50 50 51 52 49 51 51 51 50 50 49 49 48 48 48 47 46 46 46 45 46 45 43 44 43 43 43 42 42 40 40 39
51 51 51 50 51 52 50 50 49 49 48 47 48 47 47 46 45 44 45 45 44 44 43 42 40 41 36 36 37 38 37 36
51 51 52 52 52 50 50 50 49 47 46 47 46 45 45 45 44 44 44 44 44 43 41 41 40 39 35 34 32 37 35 34
51 52 52 52 52 50 48 48 47 45 46 46 46 45 44 44 43 43 43 43 43 42 41 40 39 37 34 33 31 35 34 33

GFSFLT1_sfc_temp_015.txt.gz
Temp
82 82 85 87 87 84 80 78 72 72 71 73 76 76 75 76 77 77 76 76 74 75 75 72 72 73 72 70 67 69 68 68
81 81 81 83 83 82 72 71 69 72 75 75 74 74 76 76 77 74 74 74 74 72 73 72 72 70 68 68 67 64 65 67
78 79 79 79 79 79 71 73 73 78 80 79 79 78 77 77 75 73 73 72 73 72 69 69 69 68 66 65 64 62 63 64
76 77 77 77 76 75 76 77 79 80 79 78 77 76 74 74 73 74 71 70 71 70 69 68 66 66 64 64 63 61 58 61
77 76 76 77 77 79 79 79 78 77 78 78 75 76 72 72 72 72 72 71 69 70 69 67 65 64 63 63 65 60 58 56
76 76 77 77 76 76 76 77 76 76 76 75 74 71 71 71 72 68 69 70 69 69 68 65 64 63 63 61 60 59 59 57
77 77 76 75 75 74 73 74 74 74 73 71 69 67 67 67 66 65 66 66 66 66 65 63 62 62 61 61 60 58 55 54
75 74 74 73 72 71 72 72 70 71 70 69 68 66 65 64 63 63 62 62 62 62 61 61 61 61 61 60 55 53 52 52
74 74 74 72 71 71 72 71 70 69 68 67 66 65 61 64 63 62 62 61 61 61 60 60 60 60 56 54 53 52 53 54
74 75 74 72 71 70 70 71 70 68 66 65 62 61 61 62 62 61 61 60 61 60 59 59 59 56 54 54 51 53 52 54
74 73 72 72 71 71 70 70 69 67 64 62 61 61 63 63 62 59 59 59 59 58 58 58 58 54 55 52 54 55 52 53
73 72 71 71 71 69 69 69 67 64 64 63 62 62 62 63 61 60 59 58 58 57 57 56 56 57 55 54 53 52 50 52
74 72 70 70 68 68 67 67 65 65 64 63 63 63 62 61 60 59 58 57 57 57 56 55 55 55 53 52 51 52 51 50
74 71 69 68 67 67 66 65 66 64 62 64 64 63 61 60 59 59 58 57 56 56 56 55 55 54 52 52 51 52 51 50
73 70 68 68 68 67 66 64 64 64 65 65 63 61 61 60 59 58 57 56 55 55 55 54 53 53 53 53 52 50 50 49
71 69 68 68 67 66 66 64 63 64 63 63 62 61 60 59 58 57 56 54 55 55 54 52 51 52 52 48 48 48 47 46
70 69 68 67 66 66 65 63 63 63 61 60 61 60 59 57 56 55 55 55 55 55 54 53 49 51 35 36 37 45 46 46
68 68 68 68 68 66 63 63 63 61 60 60 59 58 56 55 55 55 55 54 54 53 53 52 49 48 36 35 34 43 45 44
70 70 68 69 69 66 63 65 63 60 59 58 57 56 55 55 55 55 54 54 52 52 52 51 50 42 35 34 34 41 44 43

GFSFLT1_sfc_temp_018.txt.gz
Temp
80 81 83 83 80 77 74 72 71 69 68 68 70 70 69 68 68 68 69 68 67 64 63 63 63 62 60 59 57 58 56 54
80 80 79 80 78 75 70 67 66 69 69 69 69 66 68 68 68 68 67 67 67 64 62 62 61 59 58 58 56 54 53 54
78 78 77 78 76 73 69 67 66 71 72 72 70 69 68 68 66 66 66 65 65 65 61 60 59 58 56 55 53 52 52 52
76 76 75 75 67 69 70 70 69 72 72 73 71 68 66 65 65 64 63 64 65 63 62 59 57 56 54 53 52 52 48 49
76 75 71 70 69 71 73 73 74 73 72 70 67 66 63 64 63 63 63 65 63 63 60 57 55 55 53 53 56 50 49 46
75 76 73 74 73 72 72 72 72 72 70 69 66 63 63 63 61 60 60 59 60 60 58 54 53 53 53 52 51 50 49 46
75 75 74 73 72 69 69 70 70 69 67 64 61 59 59 58 57 55 57 57 56 56 57 53 53 52 52 52 51 49 47 45
72 71 71 70 68 67 68 69 67 66 64 62 60 59 58 55 56 56 56 55 53 53 53 52 52 52 52 50 49 47 45 43
72 71 70 69 67 67 68 68 66 65 62 61 60 59 56 56 56 56 54 53 52 53 52 52 52 53 51 49 47 45 45 44
72 72 70 68 67 66 66 67 66 64 62 60 57 57 57 56 56 55 53 53 55 52 51 51 51 51 50 48 45 44 45 44
72 72 70 69 68 68 66 67 65 63 60 58 58 57 57 58 55 54 53 52 52 52 51 51 50 50 51 49 46 46 47 44
71 72 71 69 68 67 66 66 64 61 60 58 56 57 57 56 55 54 53 52 52 52 51 50 50 49 49 47 46 46 45 43
73 72 69 68 67 67 65 64 63 61 60 58 57 58 58 56 55 54 53 52 52 51 51 50 51 49 49 47 45 45 44 43
73 70 68 67 66 65 64 63 63 62 62 60 59 57 56 55 54 54 54 52 51 50 51 50 49 47 47 46 46 45 45 44
74 70 68 67 67 64 64 62 61 62 61 60 58 56 56 55 54 53 53 52 50 49 49 50 49 48 49 48 47 43 42 42
73 71 69 67 65 64 65 62 61 60 59 60 58 58 56 55 53 53 52 50 50 50 49 49 49 48 48 42 41 40 39 39
73 71 69 67 66 65 64 62 60 60 59 57 59 57 56 52 52 51 50 50 50 49 48 48 46 49 37 37 37 36 39 38
70 70 69 68 67 65 62 62 60 59 58 58 57 56 52 51 52 52 50 49 48 48 47 47 46 38 36 36 35 35 36 36
70 69 68 68 67 66 63 63 61 58 57 57 55 54 52 52 51 51 49 49 47 46 46 46 45 39 36 36 35 32 34 35

GFSFLT1_sfc_temp_021.txt.gz
Temp
72 72 72 74 70 68 69 66 64 62 61 61 61 61 60 60 60 60 62 62 62 58 57 56 56 55 54 53 52 52 50 49
72 71 70 70 69 70 66 64 63 63 60 59 60 59 59 58 59 61 60 60 60 57 56 55 55 53 52 52 50 49 49 48
70 69 68 70 67 64 64 65 64 64 65 65 62 60 59 59 59 58 59 59 59 59 56 54 54 53 51 50 48 47 47 46
68 68 65 65 62 62 63 64 65 65 65 63 61 59 57 56 55 56 58 60 60 57 54 52 51 50 49 48 47 47 44 45
68 66 61 61 61 61 64 65 64 65 64 64 63 58 55 54 55 55 55 56 56 56 53 51 49 48 48 47 51 46 44 41
66 64 63 63 65 65 63 64 64 63 63 61 59 57 55 53 52 52 53 53 54 54 52 50 48 47 47 47 46 44 43 41
65 66 67 67 65 65 66 63 60 59 59 56 55 54 52 51 50 49 50 50 50 50 52 49 48 48 46 45 44 44 42 42
63 61 60 59 60 63 60 59 58 58 56 54 53 52 51 50 49 48 49 48 47 47 48 47 46 47 47 46 44 42 42 40
62 61 60 58 59 59 58 58 57 56 55 54 53 52 50 50 50 50 48 47 47 47 47 47 47 47 46 45 43 42 42 40
61 60 60 59 58 58 57 57 56 55 53 52 52 52 51 50 50 50 47 47 51 47 47 47 46 46 46 45 42 42 41 40
62 62 60 61 60 59 57 57 57 54 52 51 52 51 51 51 50 49 49 47 48 47 46 46 46 46 45 44 43 43 41 40
63 61 62 61 61 58 57 56 54 52 52 51 50 50 52 52 52 48 50 47 48 47 47 46 46 45 44 43 42 43 41 40
63 62 61 60 60 59 57 55 55 54 52 52 51 52 54 52 51 51 47 47 48 47 47 47 46 45 43 43 42 43 42 42
64 61 61 60 59 59 57 56 55 54 54 52 51 54 54 53 52 50 48 47 47 47 48 47 45 46 44 44 42 42 40 40
64 61 61 61 60 59 58 54 55 55 54 52 53 53 53 52 50 50 50 47 47 47 47 46 45 45 46 45 42 39 39 39
62 61 59 61 59 57 57 55 55 54 53 53 54 53 53 51 50 49 49 48 48 47 46 45 45 45 46 41 41 38 37 36
63 61 60 60 58 57 57 55 53 54 52 52 54 52 51 49 48 47 47 47 47 46 45 45 44 46 38 39 38 35 37 35
62 61 60 59 57 59 55 55 54 52 51 54 53 49 48 48 49 48 48 47 45 45 45 44 42 39 38 38 37 34 34 32
61 61 60 58 56 56 54 55 53 52 53 50 48 47 47 48 48 47 45 45 44 44 43 43 40 38 37 37 35 32 32 32

GFSFLT1_sfc_temp_024.txt.gz
Temp
69 69 69 69 67 67 64 64 61 61 60 59 58 57 57 58 57 58 59 58 58 56 54 53 54 52 51 51 50 49 48 46
70 69 69 67 64 65 64 61 61 61 60 58 56 56 56 56 56 58 57 57 57 55 53 53 52 51 49 50 47 47 46 45
67 67 67 66 64 64 63 63 61 63 63 59 59 57 56 56 55 56 56 56 57 56 53 51 51 50 49 48 47 45 44 44
65 65 65 64 63 62 62 61 62 62 63 60 57 56 54 53 52 53 55 56 55 53 51 49 48 48 47 45 45 45 42 42
65 62 62 63 62 60 62 63 63 62 60 60 60 59 57 52 52 52 53 54 52 52 51 49 47 46 45 44 47 43 42 40
64 60 62 62 61 61 61 61 61 61 60 60 59 54 52 51 51 50 50 50 50 51 49 47 46 45 44 44 42 42 41 40
62 61 62 60 61 60 58 59 58 59 59 56 55 52 51 51 48 47 47 47 47 48 48 46 45 45 44 43 42 42 40 40
60 59 60 60 59 59 62 60 54 54 53 52 53 53 53 51 48 47 47 48 48 45 45 45 44 44 45 43 42 41 40 39
61 59 57 57 58 59 59 60 55 53 53 52 52 51 49 49 50 49 48 47 47 48 47 46 45 45 44 43 41 40 40 39
58 57 58 57 56 55 57 58 57 55 52 51 51 50 50 50 50 49 48 49 51 45 45 45 45 45 43 42 40 41 40 39
58 59 58 59 58 56 55 56 56 53 51 51 52 52 51 50 50 49 49 49 50 47 47 45 44 44 43 42 40 41 40 38
59 60 60 60 59 56 56 55 53 52 52 50 49 51 51 51 50 50 49 49 49 48 47 45 45 45 44 42 41 40 40 39
61 60 59 58 58 56 55 55 54 54 52 50 50 51 51 52 50 50 48 49 47 47 46 45 45 44 43 41 41 41 39 38
60 58 58 58 58 57 56 55 54 53 52 51 49 49 50 50 49 47 46 47 45 44 45 45 45 43 43 43 42 40 40 40
59 58 58 59 59 58 55 53 53 53 52 51 50 50 50 48 47 46 45 44 43 44 45 45 45 44 44 44 41 39 38 38
57 56 57 57 56 55 53 53 53 53 52 51 49 50 48 46 45 45 45 45 46 45 44 43 43 44 45 42 40 37 36 35
59 57 56 55 55 54 54 52 52 52 51 51 51 48 47 47 46 45 44 45 47 46 44 42 42 44 41 40 38 35 36 34
56 55 56 57 55 55 54 52 52 51 51 52 48 48 47 46 45 44 45 45 44 44 43 42 41 40 38 39 38 34 34 32
56 55 55 54 53 55 52 51 50 50 50 48 47 47 44 45 43 43 43 43 42 40 40 42 40 40 38 38 36 33 32 31

GFSFLT1_sfc_temp_027.txt.gz
Temp
65 65 66 65 63 63 62 61 59 59 58 58 56 55 56 56 56 56 57 56 56 53 52 51 51 50 49 49 48 47 45 44
66 67 65 63 61 61 61 59 59 60 58 57 54 54 54 54 55 56 55 55 54 52 51 51 50 49 47 48 45 45 44 43
65 64 63 61 62 61 61 61 59 61 62 57 57 55 54 54 54 54 54 54 54 53 50 49 49 47 47 46 45 43 42 42
63 63 62 61 61 61 61 61 60 61 60 58 54 53 53 52 51 51 52 53 52 50 49 47 46 46 44 43 43 43 41 40
64 63 62 62 61 61 62 62 61 61 60 59 58 55 55 51 50 50 50 50 50 50 48 47 45 44 44 43 45 41 40 39
64 63 64 63 61 60 60 61 60 61 59 57 55 53 51 50 49 48 47 47 49 49 48 46 45 44 43 43 42 41 40 39
59 59 61 61 60 59 59 60 60 59 60 56 54 52 50 49 46 46 45 45 45 47 47 46 48 47 43 42 41 41 39 39
56 58 59 58 58 59 59 58 55 57 58 53 52 52 53 52 49 47 45 45 45 45 48 48 47 47 44 43 43 40 39 38
58 59 59 59 59 58 59 56 53 53 52 51 50 51 52 52 51 47 47 48 47 48 48 48 46 45 43 42 41 39 39 38
58 59 59 58 57 55 55 55 53 52 51 52 51 51 53 51 50 50 49 48 49 48 48 47 45 44 42 42 39 39 39 38
55 56 55 56 56 55 53 55 54 54 53 54 54 53 52 51 49 49 49 49 50 47 47 47 44 43 43 42 40 41 39 38
56 57 57 56 56 54 54 54 52 52 53 51 49 49 49 49 50 50 49 49 48 48 47 45 43 43 43 41 40 40 39 38
57 57 56 56 55 55 55 55 54 54 51 50 49 49 49 48 48 49 48 48 47 45 44 43 43 44 43 41 39 40 38 37
55 54 55 56 56 56 55 54 52 50 51 51 49 49 48 48 47 46 44 44 43 43 43 43 44 43 41 40 39 39 38 38
55 53 54 56 57 55 53 50 50 52 52 51 49 48 51 50 49 44 43 43 42 42 43 43 44 42 42 41 40 37 36 37
54 53 53 54 52 51 51 50 51 51 50 50 48 51 51 50 47 44 42 42 43 43 43 44 41 41 43 40 39 36 35 35
55 55 54 53 52 51 51 51 51 50 49 49 52 50 48 45 45 43 42 44 45 44 44 42 40 42 41 40 38 34 35 34
54 52 53 53 52 52 51 51 50 49 47 49 48 46 45 44 44 44 44 43 43 43 41 42 40 39 40 40 38 34 33 33
48 46 49 51 50 50 48 47 46 45 44 45 45 45 44 44 43 42 42 42 40 40 40 40 38 40 39 39 37 33 32 31

GFSFLT1_sfc_temp_030.txt.gz
Temp
62 62 62 61 61 62 61 60 59 58 57 56 55 54 55 55 55 56 56 55 54 52 51 50 50 49 48 48 46 45 45 44
62 62 61 61 60 60 60 58 57 58 57 55 53 53 53 53 54 55 55 54 53 51 49 49 49 48 47 47 45 44 42 42
61 60 60 61 61 61 60 59 58 60 61 56 55 54 53 53 53 53 53 52 51 51 48 47 47 46 45 45 45 42 41 41
61 61 60 60 60 60 60 59 59 60 60 56 52 53 52 51 50 50 51 51 50 49 48 46 45 45 44 43 43 43 41 40
62 61 59 59 60 60 61 60 59 60 59 58 56 55 52 50 49 48 48 49 48 48 47 45 45 44 43 44 44 42 41 39
60 61 62 61 58 59 60 59 59 59 59 59 55 53 52 50 48 46 46 46 47 47 46 46 44 44 46 46 43 41 40 39
59 60 60 58 57 57 58 59 59 59 59 56 54 51 51 50 46 45 45 44 45 46 46 44 46 47 45 44 41 41 40 39
55 56 58 58 57 58 59 60 59 58 57 55 54 55 53 52 49 46 44 44 44 44 45 46 46 47 46 43 41 41 39 38
57 58 59 58 58 58 59 59 59 56 57 55 55 55 53 54 49 48 48 48 47 48 48 46 47 46 43 43 42 39 39 38
58 57 58 58 58 58 59 57 58 55 54 53 53 52 53 50 48 48 47 49 49 48 48 47 47 45 45 43 42 40 39 38
54 56 57 58 59 59 57 56 54 54 52 51 51 50 50 50 49 47 47 48 49 48 47 47 45 45 44 43 41 40 38 37
53 55 56 56 55 53 53 52 51 50 50 49 48 48 48 49 49 49 49 49 48 48 47 46 45 44 43 41 40 39 38 37
52 53 53 52 53 52 52 50 50 49 48 47 47 48 49 48 48 50 49 49 47 47 46 45 44 44 43 41 39 40 38 37
52 52 51 52 52 51 51 50 49 48 48 48 47 47 47 48 50 49 48 47 46 45 45 44 44 43 41 39 39 39 37 37
51 51 51 51 52 51 50 49 48 48 48 48 47 46 47 48 49 47 46 46 44 44 44 44 43 44 42 41 40 37 37 36
51 50 50 51 51 50 49 48 47 48 48 48 47 46 46 47 47 45 44 44 45 44 44 44 44 43 42 40 38 36 35 34
51 50 50 51 50 49 49 48 48 48 47 46 47 46 46 44 45 44 44 43 44 44 43 42 41 42 41 41 38 35 34 33
47 48 50 50 49 49 47 47 47 46 45 46 45 45 44 42 44 44 43 42 42 42 41 40 40 41 40 39 39 34 33 33
43 42 43 43 45 45 44 45 44 43 42 42 43 43 44 44 44 42 41 41 40 40 39 40 40 40 39 39 38 33 32 32

GFSFLT1_sfc_temp_033.txt.gz
Temp
66 67 69 69 69 68 69 68 68 67 67 65 66 65 65 65 66 68 66 66 65 64 63 62 63 63 62 63 61 61 61 62
68 67 68 68 67 68 68 67 66 66 64 65 64 61 62 63 66 65 64 65 64 63 63 62 63 63 61 61 60 58 59 59
66 67 67 67 68 68 67 68 66 67 69 68 67 64 63 65 65 64 64 63 63 62 61 62 62 61 59 59 58 57 59 57
67 65 66 67 68 67 68 68 67 67 68 67 63 61 60 61 62 62 63 62 63 62 61 60 59 60 59 58 57 56 55 54
69 68 67 66 67 68 68 68 67 67 66 66 63 63 62 62 60 61 61 60 60 61 60 59 58 58 57 57 55 52 55 54
68 69 70 70 68 66 67 67 66 66 64 64 62 62 62 59 58 57 57 58 59 59 59 57 57 57 56 55 53 53 55 55
69 70 70 70 67 66 66 64 65 64 63 64 62 61 58 56 53 53 55 57 56 57 58 57 57 56 54 54 49 49 54 54
68 67 67 68 64 64 65 63 62 60 61 61 62 60 59 58 53 50 51 54 55 55 56 56 55 53 51 47 49 53 53 53
69 70 69 68 64 65 65 64 63 61 61 62 61 61 61 58 54 52 53 56 57 56 56 56 55 52 51 53 54 53 52 52
67 69 69 68 65 64 65 66 66 64 61 62 61 61 60 57 55 57 56 57 56 54 54 49 54 54 49 50 53 52 52 51
64 66 66 67 66 66 65 67 67 67 63 62 62 62 60 60 57 55 54 55 56 54 53 54 53 49 53 51 53 52 51 52
64 64 65 66 66 66 65 66 66 64 64 62 61 60 59 57 55 53 54 55 55 54 51 53 48 48 50 50 51 51 50 51
64 64 63 63 63 64 63 63 63 62 60 58 59 58 56 54 54 55 55 55 54 52 51 48 50 49 49 48 47 50 49 49
62 62 62 62 61 60 60 60 60 58 57 58 57 56 55 54 55 55 54 53 51 50 50 47 47 48 49 48 48 49 49 49
62 61 60 60 60 60 61 58 58 57 57 57 56 55 55 55 55 53 52 53 47 48 49 51 51 51 50 46 46 48 47 48
59 59 60 60 60 59 59 58 56 56 56 56 55 54 55 54 52 49 48 49 49 48 50 48 48 47 46 44 48 48 47 47
57 58 58 58 58 59 57 56 55 56 56 55 54 53 54 50 48 46 45 45 45 50 49 47 45 44 40 40 41 47 47 46
52 52 53 54 56 56 56 55 55 54 53 53 52 52 48 46 46 45 44 44 45 44 43 44 42 43 40 40 39 45 47 47
48 49 50 50 52 52 52 53 52 51 51 50 50 50 47 45 45 43 42 44 42 42 44 43 43 45 39 39 37 45 46 46

GFSFLT1_sfc_temp_039.txt.gz
Temp
73 74 74 75 73 72 72 72 71 72 73 72 76 77 76 78 78 77 76 78 77 77 78 75 75 76 74 74 72 73 73 73
76 76 75 74 74 73 72 73 74 73 74 76 76 74 76 74 75 77 77 79 77 76 77 74 74 74 73 72 71 69 69 71
76 76 75 75 74 74 74 74 75 75 78 78 78 78 79 79 78 76 78 77 77 76 75 74 73 74 71 70 70 69 71 70
78 77 76 75 75 75 76 78 76 75 78 80 80 79 78 77 77 77 77 76 77 76 74 73 72 73 69 69 68 68 67 68
81 80 78 77 77 78 78 79 78 76 77 76 77 76 71 73 74 76 76 74 73 74 72 72 71 72 70 69 70 68 65 63
82 82 82 82 80 79 79 80 80 81 76 77 78 75 76 75 74 73 73 70 71 69 71 70 69 70 68 67 67 64 63 62
84 86 85 84 83 81 79 79 80 81 79 76 74 74 72 69 71 69 69 69 69 69 70 67 67 64 63 67 65 63 63 62
84 84 85 84 82 81 80 80 79 80 78 74 67 65 67 67 67 66 66 67 67 67 61 58 60 61 67 67 63 55 58 60
85 86 86 85 84 82 80 79 78 78 74 69 66 65 66 67 69 66 67 68 66 58 56 58 60 65 66 61 55 60 60 60
85 87 87 86 86 84 81 80 78 76 72 66 65 67 68 69 67 68 66 62 57 54 56 58 61 63 57 57 57 54 57 57
86 87 87 88 88 87 83 82 80 75 68 71 66 69 69 70 69 66 65 61 59 59 59 60 60 58 59 59 56 58 56 58
82 84 86 87 89 87 84 82 81 74 72 72 69 70 69 68 67 65 63 61 60 61 62 61 57 56 58 58 55 54 57 56
83 83 82 83 83 84 83 81 81 81 75 74 72 72 69 66 65 64 63 62 62 62 61 58 56 58 58 53 50 56 55 49
82 81 80 80 80 80 81 80 80 82 79 74 71 67 65 64 63 62 62 60 60 60 58 56 57 55 54 53 53 50 49 47
83 81 80 80 79 78 79 78 79 80 79 77 71 64 62 61 60 59 58 57 56 56 57 56 52 54 52 50 48 47 48 47
80 80 78 77 76 75 76 74 73 73 71 71 67 64 64 61 58 57 57 56 56 51 51 50 51 49 48 46 47 48 49 44
76 78 77 75 74 74 71 70 69 70 69 69 67 67 66 64 63 62 60 54 53 49 48 46 48 47 40 41 43 52 47 44
73 74 73 72 72 71 69 68 69 69 67 66 65 64 62 60 58 56 53 51 52 48 49 46 46 46 40 40 40 48 42 42
70 70 69 70 71 70 69 69 67 65 64 63 62 61 59 58 57 54 53 51 49 46 46 47 49 50 40 40 38 40 42 47

GFSFLT1_sfc_temp_042.txt.gz
Temp
65 67 66 67 65 64 63 61 61 61 60 62 68 69 70 70 69 68 70 72 72 69 68 67 67 65 64 64 62 62 61 60
70 69 67 67 67 65 66 62 62 64 65 66 66 64 67 67 68 70 70 70 70 68 67 66 65 65 63 63 61 59 58 59
70 68 68 67 66 66 66 67 68 68 68 68 68 68 68 70 69 69 70 69 71 69 67 63 65 64 63 61 60 57 58 58
70 70 68 68 66 66 68 69 69 69 71 72 72 70 69 70 70 67 69 69 70 69 67 65 64 63 60 60 59 58 55 55
72 72 69 69 69 69 70 71 72 72 72 72 70 70 68 68 68 69 69 69 69 68 68 65 64 63 61 60 62 60 57 54
74 73 73 72 72 71 71 72 74 72 71 71 69 69 68 68 67 68 68 66 66 65 65 63 62 61 62 59 60 59 58 53
79 78 77 75 73 72 71 72 74 74 72 71 69 65 68 65 64 63 64 62 63 63 65 61 61 61 59 58 58 58 54 53
78 79 77 77 74 72 73 73 73 74 71 70 69 68 66 65 63 63 60 60 60 60 61 60 57 58 58 58 57 55 54 51
79 80 79 78 76 75 74 73 73 74 72 70 70 69 67 65 65 63 61 61 61 61 61 57 57 57 56 57 56 54 53 53
80 81 81 80 78 76 74 75 75 74 73 70 68 68 67 66 64 64 62 62 60 56 56 55 55 56 57 54 52 52 53 52
81 81 81 82 81 80 76 77 74 77 74 71 67 67 64 64 65 63 62 61 57 55 54 54 55 55 54 53 52 53 52 51
80 80 81 81 82 82 77 77 77 75 73 68 67 66 65 65 64 63 63 57 57 56 55 55 56 54 54 52 52 52 51 51
80 79 79 79 79 81 77 78 75 73 70 69 68 65 65 64 63 62 59 58 58 58 57 56 57 54 53 51 51 52 49 46
80 79 78 78 78 78 78 77 77 71 70 68 67 65 64 63 61 59 58 58 57 57 57 55 53 52 51 50 49 47 46 45
79 78 77 77 77 76 76 74 75 72 70 68 66 61 60 57 57 56 55 55 54 54 53 53 51 50 50 48 46 44 44 45
78 78 76 76 74 74 75 72 68 70 69 65 60 59 59 57 56 55 54 53 53 51 49 48 48 48 47 46 45 44 44 44
78 78 76 74 73 73 71 67 67 68 66 61 61 61 59 57 55 54 53 51 49 48 48 46 45 46 41 43 44 44 45 45
75 75 74 72 72 69 67 66 67 66 64 64 63 62 59 56 55 53 49 48 47 45 45 46 44 45 41 41 40 43 43 41
72 72 70 70 69 68 66 67 65 63 62 62 61 58 56 55 54 51 48 47 45 45 44 45 44 46 40 39 38 40 40 41

GFSFLT1_sfc_temp_045.txt.gz
Temp
57 57 57 57 57 58 58 59 60 60 60 62 63 62 65 64 63 63 65 66 67 65 62 62 64 62 60 59 59 57 56 56
60 58 58 57 57 57 57 57 58 59 59 57 60 59 62 65 63 66 65 64 66 64 62 63 63 61 60 60 58 57 55 54
60 59 59 58 58 58 57 58 58 59 61 62 62 63 65 67 65 64 64 64 64 63 61 60 60 60 58 57 57 54 54 54
61 60 59 60 59 60 58 59 60 60 62 64 64 62 60 61 63 62 65 66 66 64 62 61 59 59 57 56 56 55 52 52
63 61 60 61 61 62 63 62 62 63 65 65 64 63 63 63 62 65 64 66 65 64 63 61 59 60 58 58 59 57 56 54
64 62 63 64 64 63 64 65 66 67 66 66 63 64 63 62 62 62 62 62 63 62 61 59 59 58 58 58 57 56 56 54
66 66 66 64 64 64 64 64 66 67 66 65 63 61 63 60 60 61 59 60 58 60 60 59 58 58 57 57 57 56 54 54
66 66 65 66 65 64 65 65 65 67 67 66 65 63 62 63 63 60 59 58 57 58 58 57 57 56 57 57 55 55 53 52
68 68 67 66 67 67 66 66 66 67 67 66 67 67 66 63 63 61 61 60 60 60 58 57 57 56 55 55 54 52 53 51
71 71 70 69 68 68 68 68 68 69 67 67 67 67 64 64 60 59 59 58 57 57 56 54 54 55 55 54 52 53 52 51
72 72 71 72 72 71 69 70 68 70 69 67 67 67 62 60 59 58 57 57 55 55 54 54 53 55 54 53 51 52 51 50
67 67 69 68 68 68 69 69 68 67 67 68 66 64 61 60 60 58 58 54 54 54 54 53 54 53 52 52 51 51 50 49
67 65 64 62 65 68 71 71 67 67 68 68 65 62 60 60 60 59 58 57 56 55 54 54 53 53 52 51 50 51 49 45
67 68 68 68 67 69 72 69 69 68 66 64 61 60 60 60 60 58 55 55 55 55 54 53 53 52 51 50 49 47 46 45
67 66 67 67 68 66 68 68 67 65 64 63 60 59 59 57 56 55 55 56 54 54 53 52 51 51 49 48 46 44 44 44
67 65 65 65 65 64 63 62 64 63 63 59 56 55 55 54 55 54 54 54 52 51 50 49 48 48 47 45 45 44 44 44
69 67 66 65 65 62 61 61 59 61 58 57 56 56 55 55 54 52 51 49 49 48 47 46 46 46 41 42 44 44 44 44
68 66 66 65 63 62 58 59 60 58 57 58 58 57 55 53 52 50 48 47 46 45 44 44 43 43 41 41 41 43 43 41
64 63 61 61 61 60 60 59 58 57 56 56 55 53 51 50 50 48 46 45 42 39 40 41 43 44 40 40 38 40 40 41

GFSFLT1_sfc_temp_048.txt.gz
Temp
55 56 57 57 58 58 58 57 56 58 60 60 60 59 61 63 64 63 64 64 65 62 61 61 61 60 59 58 58 55 55 54
55 55 55 53 55 58 58 57 57 59 60 59 59 59 61 62 62 60 62 62 64 62 60 60 60 60 60 58 56 55 52 53
55 54 53 54 54 55 55 56 57 60 61 62 62 61 61 63 63 61 63 61 62 63 61 60 59 58 57 56 56 52 53 52
54 54 54 53 54 54 55 56 57 58 59 59 59 57 60 61 63 62 61 62 63 63 61 60 59 59 58 55 54 55 54 53
57 55 54 54 55 57 57 57 57 58 59 59 58 58 57 61 63 64 62 62 62 63 62 60 59 57 56 57 57 54 54 53
57 57 57 57 57 57 57 58 59 60 59 60 60 59 61 59 58 59 61 60 61 61 61 59 58 59 57 55 54 54 54 54
60 60 60 59 59 59 58 57 59 60 60 59 59 59 60 57 57 59 60 61 61 60 60 59 59 59 56 55 55 54 54 52
60 59 59 59 59 59 60 59 59 61 61 61 61 61 60 58 60 60 59 59 57 59 60 58 58 57 55 55 55 53 53 52
63 61 61 61 61 60 61 60 61 62 62 62 63 63 63 61 62 61 60 60 59 60 59 58 56 57 55 54 54 54 53 52
64 64 63 63 62 61 61 62 62 63 63 64 63 64 64 64 63 60 61 60 57 56 57 56 55 55 54 53 54 53 53 51
65 66 64 64 64 64 63 63 63 64 64 65 65 64 65 64 60 60 60 58 57 55 55 56 54 53 55 54 52 52 52 50
67 66 67 66 65 65 64 64 63 63 64 66 66 65 65 62 61 61 60 57 56 56 55 54 53 54 54 53 52 51 50 49
69 68 69 67 66 66 66 66 65 65 66 66 66 64 59 59 59 59 58 57 56 55 54 53 54 53 52 51 50 51 49 45
62 63 66 68 67 68 67 67 67 66 66 66 64 61 59 60 61 61 61 56 55 54 54 53 53 52 51 51 51 49 47 46
62 61 65 66 65 66 67 67 66 66 66 64 63 61 60 61 61 61 59 56 54 53 53 53 52 51 50 49 47 46 45 45
63 61 64 63 62 62 65 66 66 66 64 64 62 61 61 59 57 55 54 53 53 52 52 50 50 49 48 46 46 45 45 44
65 64 62 63 62 60 60 60 64 64 63 63 61 58 58 55 55 54 53 51 51 50 49 47 46 46 41 42 45 44 44 44
63 64 64 63 61 60 57 58 59 61 61 59 56 56 55 54 53 51 49 48 48 46 45 45 44 44 40 41 41 44 43 42
62 62 61 58 57 56 55 56 56 56 56 56 55 54 52 51 50 48 47 47 46 44 43 44 44 43 40 40 39 41 40 40

GFSFLT1_sfc_temp_051.txt.gz
Temp
52 58 58 58 58 58 57 57 58 58 59 57 57 56 61 63 62 62 64 64 63 61 59 58 59 57 56 56 55 54 53 53
52 54 56 56 57 57 57 56 56 58 58 57 55 56 58 62 63 62 62 62 63 60 59 59 58 59 58 58 54 53 51 51
52 51 54 54 55 56 57 57 58 59 59 61 60 58 58 63 63 62 61 61 61 60 59 58 59 57 56 55 55 52 52 51
51 51 52 51 53 52 57 56 58 60 62 63 60 58 58 57 60 59 60 60 60 60 60 59 57 57 57 54 54 54 53 52
53 51 50 50 51 53 54 55 56 57 59 59 57 59 57 59 58 59 59 59 59 60 60 59 58 57 56 56 55 54 54 50
53 53 53 52 53 52 54 55 56 57 56 56 53 53 54 55 56 56 57 59 59 61 60 59 58 57 57 56 54 53 53 53
56 56 55 53 52 52 53 54 55 57 56 55 54 55 56 55 54 56 58 59 59 59 60 58 58 58 57 57 56 54 54 53
56 55 54 54 53 53 53 54 54 56 56 56 56 56 56 56 56 56 57 58 58 60 58 57 57 58 58 57 55 54 53 53
57 57 56 56 56 55 55 55 55 56 56 56 58 58 59 59 60 58 57 58 60 60 59 59 59 59 58 57 56 55 54 54
59 60 58 58 58 57 56 57 57 58 58 58 58 59 59 60 61 59 60 59 59 57 60 58 58 57 56 54 54 53 54 53
62 61 60 60 60 59 58 59 59 59 59 59 60 60 62 61 62 60 58 60 57 55 57 56 56 55 54 53 52 53 53 51
62 63 62 62 61 60 59 59 59 60 61 61 61 61 62 61 61 61 60 58 58 57 56 56 55 54 53 52 52 52 52 50
63 64 64 62 61 61 60 60 60 61 61 61 61 62 62 61 60 60 60 60 58 58 57 56 55 54 53 52 51 52 51 49
60 62 63 63 62 62 62 61 61 61 62 61 60 60 61 61 61 61 61 60 59 58 56 55 54 53 52 51 52 50 49 48
58 60 63 64 64 63 63 62 62 62 62 62 61 61 61 62 62 60 60 60 59 55 54 54 54 52 51 51 51 48 47 46
59 58 60 63 63 63 65 64 64 63 62 62 62 62 62 60 59 60 61 59 57 55 52 53 51 51 50 49 47 46 45 45
63 63 61 61 62 62 63 64 64 64 62 62 63 62 59 58 59 60 57 54 54 53 52 51 49 48 42 42 45 45 45 44
62 62 63 62 63 63 62 63 61 60 62 62 61 60 59 59 57 54 53 52 50 48 47 48 47 45 40 41 41 45 44 43
61 60 61 64 60 56 54 56 57 59 58 58 58 58 58 54 53 51 49 48 47 45 45 45 45 43 39 40 39 42 42 41

GFSFLT1_sfc_temp_057.txt.gz
Temp
61 61 61 61 61 61 59 60 59 61 60 60 61 62 64 65 64 67 68 69 69 68 67 67 68 68 67 67 65 66 66 66
61 60 61 60 61 61 59 58 59 59 58 58 58 58 60 64 68 68 66 69 68 66 66 66 67 67 65 66 66 64 63 63
58 59 59 59 59 60 60 58 59 59 59 60 61 60 57 63 67 67 68 68 69 67 66 65 65 66 64 64 65 63 65 63
55 56 58 59 59 59 60 59 59 60 61 60 59 59 57 57 61 64 67 66 68 68 67 65 64 64 65 62 64 64 63 62
57 55 55 58 60 62 61 61 59 60 60 60 57 59 57 62 60 62 63 63 64 66 64 62 61 61 63 62 64 63 63 62
59 55 57 60 61 61 61 61 59 60 61 63 60 59 59 62 60 58 63 64 63 64 62 63 63 62 64 63 62 61 62 62
62 61 59 60 61 60 59 61 60 60 60 61 60 59 58 57 57 57 57 59 60 60 60 60 63 65 65 65 64 63 62 63
61 59 57 56 54 56 58 60 60 61 61 62 62 61 60 58 59 59 59 58 60 61 62 61 65 65 65 65 64 63 63 62
63 61 60 57 55 56 57 59 60 61 61 61 62 64 64 64 64 65 64 63 65 67 63 64 64 65 66 65 65 64 63 62
64 63 61 60 59 58 58 60 61 61 61 62 61 62 63 63 64 64 65 65 64 64 65 66 66 66 66 67 65 64 62 61
64 64 61 62 61 61 59 61 61 62 61 62 62 62 62 63 63 63 63 64 65 64 64 66 67 67 67 65 65 64 60 59
64 65 64 63 62 61 59 60 60 61 61 62 62 62 62 62 62 63 63 64 64 64 64 65 65 65 65 65 64 62 58 58
66 66 65 63 62 62 61 61 61 61 61 61 61 61 62 61 61 62 63 63 64 64 65 64 65 65 63 62 61 59 57 55
66 64 64 64 64 63 62 62 62 62 62 61 60 59 59 59 59 60 61 62 62 63 64 64 63 62 60 57 58 57 56 55
67 64 66 66 64 64 64 63 63 63 62 62 61 60 60 60 61 61 61 62 61 63 63 64 64 64 61 58 56 55 55 54
66 65 67 67 65 64 65 65 64 64 63 63 62 62 62 63 62 62 62 62 61 63 63 62 63 63 62 60 57 55 53 52
68 68 65 65 66 65 65 65 64 64 63 62 64 64 63 62 63 62 63 63 63 63 63 62 60 59 49 46 51 54 53 52
66 67 68 66 66 65 65 66 65 63 63 63 64 64 63 62 63 63 63 62 63 63 61 61 59 60 45 45 44 52 50 49
65 66 68 70 71 68 67 67 66 64 63 63 63 63 62 63 62 62 62 63 62 60 59 58 56 53 44 44 42 47 45 44

GFSFLT1_sfc_temp_060.txt.gz
Temp
73 70 70 70 70 62 62 61 61 62 61 60 62 62 61 61 62 68 73 76 74 74 75 73 76 76 76 76 74 75 75 75
74 71 71 70 67 66 60 59 60 60 58 59 59 60 61 60 62 66 70 75 74 74 75 74 76 76 75 73 72 71 72 74
71 70 70 68 69 67 62 59 60 59 63 61 62 64 63 62 63 65 70 73 74 72 70 73 74 75 73 71 70 71 73 72
71 69 69 69 66 63 68 65 60 60 61 63 62 61 58 60 61 65 68 74 74 73 69 74 73 73 71 70 70 69 69 69
74 71 70 69 69 68 69 67 64 62 62 61 61 58 60 61 65 66 71 71 72 73 70 73 71 71 71 71 71 69 71 68
74 72 72 72 71 68 66 68 65 61 62 62 60 59 61 64 64 66 69 66 69 69 69 71 69 69 69 69 67 65 69 68
76 74 72 72 72 70 66 65 65 61 61 62 61 61 60 60 60 60 61 65 67 67 70 70 70 69 67 62 65 68 69 69
75 73 71 72 70 69 68 63 63 64 61 62 63 66 65 59 58 61 64 66 66 66 67 68 69 68 66 66 67 70 69 68
76 75 72 72 70 70 69 67 64 62 62 63 64 67 68 62 62 63 63 65 68 65 63 70 72 68 68 72 71 71 70 69
77 76 74 72 71 69 68 69 70 67 65 65 64 67 68 69 68 65 65 68 66 63 63 65 69 71 70 71 71 70 70 69
77 77 74 74 72 71 69 71 71 71 69 69 69 69 70 71 71 70 70 72 72 70 69 68 69 70 71 70 70 71 70 71
78 78 77 76 75 73 70 70 71 71 70 70 70 70 70 71 71 72 72 72 72 72 71 71 71 71 72 72 72 72 72 71
79 78 77 75 74 73 72 71 72 72 71 70 69 69 70 69 69 70 71 71 72 72 72 71 71 72 73 72 71 71 71 70
79 78 77 76 75 74 73 72 72 73 72 70 69 68 68 69 69 69 70 69 70 70 71 70 70 70 71 71 70 69 69 65
79 78 78 77 76 75 74 73 72 73 72 70 69 69 69 69 69 69 69 69 68 69 70 70 69 71 70 71 69 66 63 60
79 78 80 79 77 76 76 75 73 73 72 71 70 69 69 69 69 69 69 68 69 69 69 69 69 67 69 69 67 64 60 59
79 81 81 79 80 78 76 75 74 73 71 71 72 71 70 69 69 68 68 68 68 68 68 68 68 68 55 49 57 66 62 60
72 75 77 78 79 79 78 77 76 73 71 71 72 71 70 69 69 69 68 67 68 68 69 69 68 69 49 45 45 63 60 58
69 70 72 76 79 79 78 80 78 74 73 72 72 71 70 70 69 68 68 68 67 67 67 68 64 64 47 45 44 54 56 54

GFSFLT1_sfc_temp_063.txt.gz
Temp
80 79 78 78 73 69 65 64 64 63 63 62 63 61 61 61 62 66 71 71 71 71 74 74 76 73 71 75 76 77 77 77
82 78 77 76 74 69 64 62 61 60 60 61 60 59 59 60 62 67 71 71 73 73 73 71 72 71 71 73 75 73 74 76
79 77 76 75 74 68 62 61 60 59 61 62 64 61 59 61 61 63 70 72 75 74 74 71 71 74 73 72 71 72 74 74
79 76 75 75 74 70 68 62 60 60 60 61 62 61 60 58 59 60 64 67 75 74 72 72 71 73 70 70 72 72 71 72
82 77 76 75 74 73 72 68 62 62 62 62 61 63 60 64 61 61 62 63 72 72 67 66 71 72 71 70 73 71 71 68
82 80 78 78 76 72 72 68 66 64 64 62 62 62 64 65 64 63 64 64 67 66 68 66 65 71 70 69 69 69 71 65
84 83 81 79 77 74 72 68 67 65 62 62 62 61 64 61 62 62 64 66 67 68 68 66 64 65 67 68 68 68 68 69
83 81 79 79 76 73 72 70 66 65 62 62 63 63 63 63 63 62 62 64 66 68 68 68 67 65 66 68 68 68 69 67
83 82 79 79 76 75 74 70 70 65 62 62 62 64 65 66 64 64 63 65 68 68 68 69 70 69 65 67 69 69 69 68
83 83 81 79 77 75 74 73 72 69 64 62 62 64 64 65 67 65 63 67 70 69 69 69 70 70 70 70 68 66 68 65
84 84 81 80 80 79 75 75 74 72 70 66 64 64 67 66 67 66 66 67 71 71 70 68 68 68 68 71 69 69 68 69
84 84 83 81 81 79 76 75 75 74 72 69 66 66 69 67 68 70 70 70 71 71 69 69 69 69 70 68 70 71 70 69
85 84 84 81 80 79 77 76 76 76 75 73 70 70 70 68 70 71 72 71 72 73 73 71 71 71 71 70 69 71 70 69
83 84 83 82 80 79 78 77 76 77 77 75 73 72 72 72 72 72 73 73 73 73 73 73 73 72 72 72 71 71 71 71
83 83 83 83 82 81 80 78 77 77 77 75 74 72 72 73 73 73 73 74 73 71 70 72 72 73 73 72 72 71 70 71
80 82 84 85 83 82 82 80 79 77 77 76 74 74 74 73 73 73 73 72 73 73 72 72 72 72 73 71 71 70 70 69
75 76 80 82 84 84 82 81 80 79 76 76 77 75 74 73 73 72 71 71 71 71 71 71 70 72 58 51 60 70 70 69
71 73 75 76 79 81 82 84 82 79 77 76 76 76 74 73 73 72 71 70 71 70 70 70 69 70 52 48 47 67 67 68
69 70 72 74 76 78 79 83 83 80 78 77 77 76 75 74 72 71 71 70 70 69 69 69 69 70 50 47 45 60 63 65

GFSFLT1_sfc_temp_066.txt.gz
Temp
80 77 76 75 73 66 64 64 64 63 63 61 61 60 61 62 61 61 63 66 67 67 66 65 66 66 67 67 66 66 66 65
80 77 75 74 70 69 64 62 61 60 60 59 58 57 58 59 60 61 63 67 68 67 66 67 67 66 66 66 65 65 64 66
79 75 73 72 69 65 62 61 60 61 61 62 62 60 59 60 60 62 64 66 67 67 66 65 66 66 64 64 64 63 64 65
77 74 72 71 69 66 64 61 60 60 62 60 60 59 59 58 59 60 65 66 67 67 66 66 64 65 63 64 64 64 61 62
78 75 72 71 71 66 65 62 60 61 61 61 59 58 57 60 60 61 64 65 67 69 68 66 66 65 63 63 66 64 63 61
79 75 75 74 72 68 65 63 60 61 61 62 61 60 60 62 61 61 61 61 64 64 68 64 64 66 63 63 63 64 63 60
82 79 77 75 73 69 67 64 62 62 61 62 61 61 61 60 60 59 60 62 63 62 66 63 62 62 63 62 63 61 61 62
80 78 76 74 71 68 67 65 63 63 61 61 62 62 62 61 60 60 61 61 62 63 62 61 62 63 63 63 62 61 62 61
80 80 77 75 71 70 69 67 65 63 61 61 62 63 63 63 62 63 62 62 64 65 63 62 62 64 64 62 61 60 60 60
79 81 77 76 73 70 68 68 67 65 63 62 61 62 62 63 63 63 63 64 64 64 63 62 62 63 64 65 63 62 62 62
80 80 77 77 75 73 70 70 69 65 64 62 62 62 64 64 64 63 63 63 64 65 64 64 64 64 65 64 63 63 62 63
81 80 79 78 76 75 71 71 70 68 64 63 62 62 63 64 63 64 64 63 64 65 65 65 64 64 65 64 64 64 63 63
81 80 79 77 76 76 73 72 72 71 69 65 63 63 63 63 63 64 65 64 64 65 66 66 66 65 65 64 63 66 64 63
80 80 80 78 77 76 75 73 72 73 72 68 65 63 63 63 64 64 65 65 65 65 66 66 65 64 64 64 64 64 64 65
75 76 79 80 78 77 76 74 73 73 74 71 67 65 64 64 66 65 65 67 66 66 66 66 66 66 66 66 65 64 64 64
72 72 73 75 76 77 78 77 75 74 73 72 70 69 68 67 66 66 66 67 67 67 66 66 67 67 68 66 66 65 64 64
69 70 71 72 73 73 75 77 76 75 73 72 73 71 70 68 68 68 67 67 67 67 66 66 66 68 57 51 58 65 65 64
65 65 67 67 66 67 67 72 75 75 74 73 73 72 71 69 69 68 67 66 66 66 66 66 66 66 52 49 48 63 65 64
63 64 63 60 58 57 58 63 68 71 75 75 74 73 71 71 69 68 67 66 65 65 65 65 64 66 48 46 44 55 60 62

GFSFLT1_sfc_temp_069.txt.gz
Temp
70 68 66 64 62 62 61 62 62 60 60 60 61 61 60 61 62 62 63 64 65 65 65 63 63 64 61 66 67 62 63 64
70 69 67 64 61 60 62 61 61 60 59 58 58 58 60 60 61 62 62 63 65 66 65 63 63 64 61 66 65 63 60 62
69 66 65 64 60 60 61 60 60 60 60 60 60 59 60 61 61 61 62 63 65 65 64 63 64 62 60 61 62 59 62 61
67 65 64 61 60 59 60 60 60 60 61 60 59 58 58 58 58 59 61 63 66 66 65 64 63 63 61 61 62 62 60 60
68 66 64 61 60 59 60 60 60 61 61 60 58 57 55 58 59 60 63 62 63 64 65 65 64 62 60 59 62 61 60 59
67 66 65 65 62 59 58 59 60 61 60 60 59 59 60 60 60 61 62 61 61 62 62 61 60 60 59 60 60 60 61 57
69 68 67 65 61 59 58 58 59 60 60 60 59 58 58 56 56 58 59 58 59 61 62 61 61 60 60 59 60 60 59 59
67 66 66 65 59 58 57 57 58 59 59 60 59 58 58 57 57 57 58 58 60 60 60 60 59 60 60 59 60 59 59 58
68 67 67 65 62 61 59 57 57 60 59 60 61 62 60 60 59 59 60 60 61 63 59 61 61 60 59 60 59 58 59 58
69 69 68 66 63 62 62 59 58 59 59 60 61 62 62 60 61 61 62 62 63 62 61 61 61 61 60 59 58 59 60 60
69 70 69 67 65 64 63 62 61 60 59 61 61 62 62 62 62 62 62 62 64 63 62 62 61 62 62 62 61 61 60 60
67 71 70 68 67 65 64 63 62 61 60 62 61 61 62 62 62 62 63 62 62 63 63 62 62 62 62 62 62 62 61 61
67 69 69 67 66 65 64 64 64 62 62 60 62 62 62 61 62 62 62 62 63 62 63 62 63 63 62 62 62 63 60 59
67 68 66 67 68 66 66 65 65 64 62 60 60 60 61 61 62 62 63 63 63 62 62 62 62 62 62 62 62 62 62 61
65 63 62 63 64 64 66 66 67 66 64 61 59 59 60 61 62 63 63 64 63 61 61 62 62 63 63 63 62 62 62 62
61 62 60 58 58 58 60 63 65 66 66 64 62 60 61 61 61 62 63 62 63 62 61 61 62 63 64 63 62 62 61 60
61 58 58 56 55 55 57 58 60 63 64 65 66 64 62 61 61 61 62 62 62 63 62 62 61 63 55 49 56 61 61 60
55 54 51 50 48 51 51 57 58 60 57 58 63 64 64 63 62 62 61 62 62 62 62 63 62 62 51 48 47 62 62 61
52 49 47 46 46 47 51 52 52 52 51 53 54 52 54 61 64 63 63 63 62 62 63 64 63 64 49 48 46 55 61 63

GFSFLT1_sfc_temp_072.txt.gz
Temp
64 63 63 60 60 61 62 62 61 57 58 60 61 60 60 60 62 63 64 65 66 63 63 62 61 63 60 61 58 58 60 58
65 63 62 60 59 59 60 60 60 59 59 59 59 59 59 60 61 62 61 64 66 65 65 62 63 61 62 63 60 61 59 58
63 61 60 59 58 59 59 59 60 60 60 60 60 59 60 61 61 61 62 63 65 66 66 63 64 62 59 60 59 59 59 60
63 61 60 59 58 58 59 59 60 60 60 59 57 58 58 58 59 59 60 61 63 64 65 64 62 63 60 59 59 61 56 57
65 63 59 57 58 59 59 59 59 60 60 59 57 57 56 59 59 60 60 60 61 62 63 63 61 62 60 59 60 60 59 59
64 64 61 60 60 59 58 58 58 59 60 59 58 57 59 59 59 59 60 59 60 60 61 62 60 60 59 59 59 59 58 55
66 66 62 59 58 60 57 57 57 58 60 59 59 57 58 57 57 57 58 60 59 60 61 61 60 60 59 59 60 59 59 58
63 61 60 57 57 58 59 57 56 57 58 59 59 59 59 58 58 58 58 58 59 61 60 60 60 61 61 62 60 60 58 57
63 62 62 58 57 58 59 59 59 58 59 59 60 60 60 57 56 58 59 60 61 62 61 61 61 62 62 60 60 59 57 56
63 63 64 59 57 57 57 58 59 58 58 59 59 59 58 57 57 57 58 61 62 60 61 61 61 61 61 60 57 59 58 58
64 65 64 62 60 58 57 57 58 58 60 59 60 60 61 60 58 57 58 59 60 61 60 61 60 61 61 61 60 59 59 59
64 65 65 63 61 60 57 57 57 58 61 60 60 60 61 61 60 58 59 59 60 61 61 61 61 61 61 61 62 61 59 60
63 62 62 61 60 60 59 59 58 58 59 59 59 60 61 61 61 61 61 60 61 60 61 61 61 61 62 61 60 62 60 59
58 57 59 59 60 61 60 59 58 59 59 58 58 59 60 60 61 62 62 62 62 62 62 60 60 60 60 61 60 60 61 60
55 54 54 54 55 56 57 59 61 60 59 58 58 58 59 59 61 62 62 62 62 62 62 62 61 61 61 61 60 59 60 60
52 51 50 50 51 53 56 57 58 60 60 59 58 58 59 59 59 60 61 61 62 62 61 61 62 62 62 60 61 60 59 59
50 48 47 46 48 49 52 52 53 54 54 56 58 59 59 58 59 59 59 60 60 61 61 61 59 61 52 48 55 60 61 60
46 45 43 43 44 47 46 48 50 49 49 51 50 51 52 57 59 59 58 58 59 59 60 61 60 61 49 47 46 60 61 61
42 41 41 41 43 44 46 46 46 46 46 47 47 47 47 49 51 53 59 59 58 59 60 60 61 62 48 47 45 56 60 61

GFSFLT1_sfc_temp_075.txt.gz
Temp
63 60 60 59 59 60 59 59 59 60 60 60 60 60 61 62 63 63 61 62 62 61 61 59 59 60 55 56 57 56 57 59
61 60 59 58 59 59 59 58 57 59 59 59 58 58 59 60 62 63 62 61 61 62 62 59 61 59 59 58 56 57 54 55
58 58 58 58 59 59 59 58 58 60 60 60 60 59 59 60 61 61 63 61 61 63 63 61 62 61 57 57 58 56 58 58
58 57 57 58 57 57 58 57 57 59 61 59 58 58 59 58 59 60 61 63 62 61 64 63 62 62 60 60 59 61 57 55
61 59 56 58 58 59 59 60 58 58 59 59 58 58 57 59 60 60 60 62 63 62 62 62 63 61 60 59 59 61 60 58
61 60 58 58 60 60 61 60 61 59 57 59 58 57 58 58 59 59 59 59 60 61 61 59 59 60 60 59 57 57 57 58
64 63 60 58 61 60 59 58 58 58 57 57 57 58 57 55 57 58 58 58 57 59 59 60 60 59 58 58 58 58 56 57
61 59 57 58 59 59 58 57 57 58 57 56 55 56 57 57 57 58 57 58 58 57 59 59 59 60 59 58 57 57 57 56
62 60 58 57 59 59 59 57 57 59 59 58 56 56 59 59 58 58 58 59 60 61 59 59 60 60 59 59 58 58 57 56
61 60 58 57 59 59 59 58 56 59 59 59 56 56 57 58 56 58 59 60 61 61 59 59 60 60 59 59 58 58 58 58
60 60 58 58 58 60 60 60 56 59 59 60 59 57 57 55 54 54 56 58 59 57 59 59 58 60 60 59 59 60 59 59
60 60 58 57 57 59 59 59 57 59 58 60 59 56 57 59 56 55 55 55 56 56 59 60 60 60 61 60 61 61 59 59
59 58 57 57 55 57 57 57 58 59 57 59 59 56 59 59 59 57 56 56 56 58 57 59 61 61 61 60 60 61 59 59
52 53 53 54 55 56 56 56 57 59 59 59 58 55 56 57 59 60 59 58 57 58 58 58 58 59 59 59 61 61 61 60
48 47 49 51 53 54 54 55 56 57 57 58 58 55 56 56 57 59 60 61 60 60 60 60 60 59 59 60 60 59 60 61
46 45 45 47 49 50 51 52 53 54 57 56 55 56 56 56 56 57 58 58 60 61 61 60 61 61 61 59 59 58 58 57
43 43 44 44 45 46 47 48 49 51 50 50 51 52 55 57 57 57 57 58 59 59 59 59 59 60 52 48 54 60 60 59
40 40 40 41 43 44 43 45 47 46 46 47 47 48 48 49 52 54 56 57 59 59 59 59 59 59 48 46 46 58 60 60
38 38 38 38 41 43 42 42 41 41 41 42 43 44 45 46 47 47 47 48 50 56 58 59 59 59 37 40 43 55 58 59

GFSFLT1_sfc_temp_078.txt.gz
Temp
67 59 59 59 58 59 61 61 59 58 59 60 60 60 61 61 62 61 62 62 64 62 61 59 60 61 58 59 57 55 58 58
64 59 58 57 57 58 59 59 59 59 58 58 58 58 59 60 62 63 62 63 64 61 59 59 60 58 59 59 57 56 53 56
57 57 57 57 59 60 59 59 59 59 60 59 60 59 59 60 61 61 60 60 60 60 59 59 60 59 57 58 59 55 54 58
55 56 57 57 60 60 59 59 59 58 60 59 58 58 59 58 59 60 60 60 59 59 59 60 60 60 58 59 59 57 56 56
58 56 56 57 60 61 59 57 59 61 61 59 57 57 56 58 59 60 61 60 59 59 60 59 60 59 58 59 60 60 58 57
58 58 58 58 60 58 57 57 58 59 60 60 54 56 57 58 58 59 59 60 60 59 60 60 59 59 59 59 57 57 58 58
60 58 57 60 61 58 58 60 60 59 58 60 54 56 57 55 56 57 58 58 59 59 60 59 59 59 59 58 57 57 57 57
58 55 55 59 58 60 61 59 59 59 57 58 57 54 55 54 57 57 57 57 57 59 59 59 60 60 58 58 57 57 56 56
59 57 56 57 59 60 59 58 58 58 57 57 55 54 54 55 56 57 58 58 58 58 59 59 60 59 59 58 57 57 57 56
59 59 57 57 59 59 59 58 58 58 58 58 56 54 55 58 57 57 58 58 59 58 58 58 59 59 59 59 59 58 57 57
59 57 56 59 60 60 59 59 58 59 59 59 58 57 55 56 54 55 58 58 58 56 58 59 58 59 59 59 59 59 58 58
56 54 55 60 60 59 58 59 57 59 58 59 58 57 56 54 55 54 54 57 58 58 59 59 58 58 59 58 59 58 57 57
54 55 57 58 58 57 57 57 59 59 58 58 58 57 57 54 56 55 55 54 57 58 58 59 59 59 59 59 58 59 58 57
50 52 54 55 56 57 57 57 58 58 58 58 58 57 57 55 55 56 56 55 55 55 56 56 56 59 59 59 59 59 59 59
46 46 48 49 51 52 53 53 56 58 59 59 57 57 57 54 55 55 55 55 55 56 56 57 57 57 59 60 59 59 60 60
43 44 44 46 47 48 50 50 51 53 56 55 52 55 57 56 56 55 55 57 56 57 56 57 59 59 59 58 59 59 58 58
40 40 42 43 44 44 45 46 46 48 48 48 50 50 51 51 53 55 57 57 58 59 58 58 58 59 50 47 53 58 59 58
38 38 38 40 41 41 40 41 44 44 44 44 45 46 46 47 49 49 48 48 49 53 56 58 58 57 37 38 42 57 59 59
36 37 37 39 40 40 39 39 39 39 39 40 41 42 42 43 43 43 43 45 41 40 40 40 43 40 36 37 37 44 54 58

GFSFLT1_sfc_temp_084.txt.gz
Temp
87 89 88 87 85 83 78 74 75 73 68 69 71 68 66 65 64 64 64 65 67 67 66 66 65 65 63 63 67 73 76 75
87 88 86 84 82 80 77 71 73 69 67 67 66 67 66 65 67 66 67 65 64 65 64 64 63 62 62 63 69 70 71 74
85 86 84 80 80 78 75 71 70 71 73 72 69 67 67 70 71 73 72 69 68 64 62 62 62 62 61 61 66 67 70 73
82 84 83 79 78 77 72 70 72 71 74 70 71 69 66 65 68 70 67 65 64 64 63 61 62 61 59 60 65 68 68 72
83 84 84 79 78 77 72 71 74 70 72 70 69 70 64 70 65 65 67 65 63 62 62 62 61 61 60 60 66 70 72 68
82 84 86 83 79 76 72 69 71 70 68 73 71 70 69 72 64 63 62 60 61 60 60 60 60 60 60 61 65 69 71 70
78 82 84 81 79 75 67 66 67 68 68 73 70 69 69 68 62 60 60 60 60 59 58 59 59 59 59 61 68 68 69 70
74 76 77 76 74 68 63 64 64 65 72 73 69 69 69 66 62 59 59 59 58 59 59 57 58 59 60 60 63 66 67 68
73 75 74 74 73 63 62 63 63 64 72 70 66 70 69 66 65 65 63 61 60 60 59 60 59 59 59 61 61 63 66 66
69 74 73 72 71 61 62 63 64 63 69 65 64 69 67 65 65 68 68 68 65 60 61 59 59 59 59 59 59 60 62 64
60 70 70 72 68 63 64 69 64 64 65 64 63 67 69 68 68 66 67 67 64 63 60 60 58 59 59 60 58 60 60 60
52 65 68 68 66 65 64 67 63 63 66 65 64 65 66 66 66 67 67 67 65 64 60 59 58 58 58 59 59 59 59 59
48 51 62 62 62 61 61 63 62 63 65 65 65 67 65 63 64 68 69 68 67 66 63 59 59 59 58 58 58 59 60 60
45 46 48 54 58 59 59 60 61 62 62 62 63 63 62 62 62 66 66 65 66 66 65 63 61 60 60 59 60 60 61 60
42 42 43 45 48 50 54 58 60 61 62 62 61 60 61 61 61 64 62 62 62 64 64 63 62 62 61 60 59 59 60 61
38 39 40 41 43 45 47 49 52 55 54 53 52 53 55 58 60 62 65 65 65 66 65 63 63 63 50 48 63 62 61 60
37 37 38 38 39 40 42 44 46 48 48 47 49 49 49 49 50 50 50 50 48 48 48 50 43 45 37 38 43 60 62 62
35 36 35 36 36 38 37 40 43 43 43 44 45 46 45 45 46 44 42 42 43 42 42 41 39 38 36 38 37 48 52 43
34 35 34 35 36 37 38 39 39 39 40 41 42 43 42 43 42 41 39 39 37 37 37 38 37 37 36 38 38 42 38 36

GFSFLT1_sfc_temp_090.txt.gz
Temp
83 84 86 87 87 83 79 77 76 76 76 75 74 70 69 70 69 70 70 70 70 68 66 66 66 64 63 63 63 62 62 62
84 83 83 84 84 84 78 76 75 75 74 72 71 68 69 66 68 68 68 69 67 66 65 65 65 64 64 63 62 61 60 62
81 82 80 78 80 80 78 76 75 74 75 72 72 70 69 68 67 67 67 68 66 65 64 63 63 63 63 63 62 60 60 61
79 80 78 77 78 79 79 77 75 75 74 73 72 70 69 67 66 67 66 66 66 65 64 63 63 63 63 63 62 61 59 60
79 80 79 78 77 77 81 78 75 74 73 73 70 67 66 67 67 68 67 67 65 65 65 64 63 63 62 62 63 62 61 58
76 77 79 80 79 77 78 78 77 73 72 73 71 68 68 68 68 67 67 66 67 66 65 65 63 62 62 63 61 61 61 60
71 74 79 81 79 78 76 76 76 74 73 73 70 68 68 68 66 64 63 62 62 62 62 62 62 62 61 62 62 61 61 61
66 68 69 68 77 76 76 76 74 74 73 72 70 70 69 67 66 64 62 60 59 59 60 59 60 61 61 61 61 61 61 60
63 65 66 61 74 76 75 74 73 71 72 71 72 71 69 68 67 65 62 62 60 60 58 58 59 60 60 60 60 60 60 60
58 60 60 58 70 74 72 70 71 69 71 71 70 69 68 67 66 65 64 63 63 60 59 58 58 58 59 59 59 59 59 60
53 55 54 60 67 66 65 68 68 67 71 70 69 68 67 67 66 63 64 64 63 61 59 59 58 58 58 58 58 59 59 60
49 49 49 51 59 65 65 64 65 65 68 68 67 68 67 66 65 66 65 63 63 62 60 59 58 57 58 57 57 57 57 57
47 45 45 46 47 51 63 62 62 64 63 66 65 64 65 65 64 65 65 64 64 62 61 60 59 58 57 57 56 56 55 55
44 42 41 42 43 45 47 60 61 62 61 62 61 62 62 62 62 63 64 64 63 63 62 59 58 58 57 56 57 56 55 55
42 39 38 39 40 42 43 47 59 60 60 60 61 61 60 60 61 62 61 63 62 62 61 60 59 58 58 58 57 57 57 56
39 36 36 37 38 39 40 42 48 53 53 52 52 52 54 54 52 54 54 53 51 51 49 49 48 45 43 46 56 56 56 56
36 35 35 35 36 36 38 39 42 46 47 47 47 48 47 46 45 45 45 44 44 44 42 42 41 44 38 39 45 49 50 49
33 33 33 34 34 35 35 37 40 41 42 43 43 43 42 41 41 40 40 39 39 38 39 39 38 38 37 39 40 42 39 39
32 32 33 34 34 34 36 36 36 36 38 39 40 40 38 38 38 37 36 36 36 35 35 36 36 36 36 36 36 36 35 34

GFSFLT1_sfc_temp_093.txt.gz
Temp
72 73 75 77 80 72 75 73 72 72 70 67 66 65 64 64 64 64 66 67 65 64 63 63 64 63 63 62 61 62 62 61
75 73 73 78 80 73 74 72 71 71 70 67 65 63 63 63 64 66 68 66 64 63 63 62 63 63 62 62 62 61 60 61
76 77 73 72 78 71 73 72 71 72 72 70 66 64 61 62 65 66 66 64 63 63 63 63 63 61 61 62 62 60 61 62
74 76 76 71 71 67 72 72 72 72 69 67 65 63 61 59 60 62 65 66 64 63 64 63 63 63 62 62 62 61 59 60
68 71 72 70 70 72 72 72 71 70 70 69 65 64 60 60 61 62 65 65 65 63 63 63 63 63 62 62 62 61 61 58
62 64 64 67 68 72 72 71 71 70 69 68 64 61 60 61 60 61 62 62 64 63 63 61 62 62 63 63 62 61 61 60
62 64 64 64 63 70 72 70 70 69 68 67 65 63 61 62 60 59 60 62 63 62 63 63 62 62 62 62 63 61 60 61
57 57 57 58 58 60 68 70 66 67 68 66 68 67 63 61 60 60 58 58 58 59 59 59 60 62 62 62 62 62 61 60
52 54 53 52 59 59 66 68 65 65 66 65 67 68 62 63 61 59 57 57 59 59 58 59 59 59 61 61 61 61 61 60
49 50 50 50 52 60 63 64 65 65 64 66 67 66 63 61 60 60 59 59 58 58 58 58 58 59 60 60 60 60 61 61
46 47 47 48 49 54 60 61 61 64 65 65 65 64 63 61 60 59 59 61 61 59 58 57 57 58 58 59 58 59 59 60
44 44 44 45 46 49 52 59 60 61 63 65 64 63 63 61 60 60 59 61 58 59 59 57 57 57 57 57 58 58 57 58
42 41 42 42 43 44 46 48 59 59 62 62 62 62 62 62 62 62 62 60 61 60 58 57 57 57 57 56 56 57 58 58
39 39 38 39 40 41 43 46 50 60 61 60 60 60 61 60 61 62 61 61 61 59 59 58 57 57 56 56 56 56 55 56
37 36 37 37 38 39 40 42 47 58 59 58 58 59 59 58 59 59 59 58 59 59 58 58 56 56 57 57 56 55 55 55
35 34 35 36 36 37 39 40 43 48 51 51 51 52 52 51 51 51 50 50 50 51 49 48 47 46 45 50 56 55 55 54
33 34 34 34 34 36 37 39 42 42 43 44 46 46 45 45 44 44 43 43 43 43 42 42 42 42 39 40 48 48 48 50
31 32 32 33 33 35 35 37 39 39 38 39 40 41 41 40 40 40 39 38 39 38 38 38 37 37 38 38 39 40 39 38
31 31 32 32 33 34 36 36 36 36 35 36 37 37 37 38 37 36 36 36 35 35 36 36 36 36 36 36 36 36 35 35

GFSFLT1_sfc_temp_099.txt.gz
Temp
67 68 67 66 65 65 71 70 70 69 68 67 66 66 66 66 66 66 65 66 65 64 63 64 64 64 63 63 62 62 61 61
66 66 66 64 62 61 67 68 68 68 67 66 65 64 66 65 66 66 66 65 64 64 62 63 64 63 63 63 62 61 60 61
65 65 63 62 66 62 64 67 67 68 68 68 66 67 66 66 65 64 65 64 64 63 62 63 63 62 62 62 61 60 60 61
55 57 56 54 56 59 63 67 67 68 68 68 62 62 62 62 62 63 63 64 64 65 63 63 62 63 61 61 62 61 59 60
53 53 52 52 54 56 58 67 67 68 69 67 64 64 63 64 65 65 62 63 63 64 63 63 62 63 62 61 62 61 61 59
49 50 51 52 52 54 56 65 69 69 68 68 65 64 65 63 64 60 62 62 63 63 63 62 62 62 62 62 61 60 60 59
48 51 51 52 53 51 53 60 67 69 68 67 65 64 61 60 60 60 60 61 62 62 62 62 62 62 62 62 62 61 60 59
45 46 46 48 48 50 51 55 65 67 67 66 64 63 61 60 60 60 59 58 58 61 61 61 61 61 61 62 61 60 60 60
44 45 46 45 46 48 48 51 63 65 65 64 63 61 61 61 60 60 60 60 60 59 60 60 61 61 60 60 60 61 61 60
41 42 44 44 44 45 46 50 62 63 64 61 60 60 60 60 60 60 60 60 62 62 62 61 59 59 59 60 60 60 60 60
39 40 41 42 43 44 46 48 52 61 61 62 61 61 61 60 60 59 58 58 58 57 56 55 56 56 56 58 58 59 59 60
37 38 40 40 41 43 45 45 48 51 59 60 60 59 59 59 59 58 58 57 57 56 55 54 56 55 57 57 57 58 58 59
37 37 37 38 38 40 42 43 45 49 53 59 59 59 59 59 59 59 58 58 57 58 57 56 57 56 56 56 56 57 57 57
35 35 35 35 37 38 39 42 43 46 51 58 58 59 59 58 59 59 59 58 56 58 57 57 56 56 56 56 56 56 56 57
34 33 33 35 36 36 38 39 42 43 46 56 58 58 58 58 59 59 59 57 58 57 58 57 55 56 56 56 56 55 54 54
32 31 32 33 33 35 36 37 40 41 42 43 46 51 52 53 51 51 51 51 51 51 50 48 47 46 43 44 54 54 54 50
31 31 32 32 32 33 35 35 37 39 38 37 40 43 45 43 43 43 44 43 42 42 41 41 40 40 37 39 46 51 49 47
30 30 31 31 32 33 32 34 36 36 35 37 36 36 38 38 38 38 37 37 38 37 37 37 35 36 37 38 38 41 40 40
29 30 30 31 31 32 33 33 33 33 32 33 34 34 33 34 34 34 34 35 34 35 34 35 34 35 36 36 36 36 35 35

GFSFLT1_sfc_temp_102.txt.gz
Temp
62 62 62 62 60 60 64 68 68 68 68 67 66 66 66 66 66 66 66 65 65 65 66 65 64 64 63 63 62 62 62 61
58 57 57 58 58 58 60 63 67 67 68 66 66 65 66 66 66 66 65 65 65 65 65 64 64 63 64 64 63 61 61 62
55 55 54 53 52 53 56 60 66 67 68 71 68 68 67 67 66 65 65 65 65 65 64 63 63 63 62 63 62 61 61 61
50 52 51 50 50 50 53 54 62 66 68 68 63 64 63 64 65 65 65 65 65 65 64 64 63 63 62 62 62 61 59 60
48 49 49 49 51 51 52 53 54 65 67 67 67 65 63 65 66 66 66 65 65 65 64 63 63 63 62 62 62 62 61 59
45 46 48 49 50 52 52 51 55 60 66 67 66 64 66 65 66 64 64 64 64 64 63 62 63 62 62 62 61 61 62 61
44 46 47 47 48 48 50 51 53 57 66 66 65 65 64 62 63 63 62 63 62 62 62 62 62 62 61 61 62 61 60 60
41 41 42 44 45 46 48 49 49 53 65 66 66 64 63 62 63 63 62 62 61 61 61 61 62 62 62 62 61 60 60 59
40 41 41 42 43 44 45 46 48 51 63 66 67 65 61 61 63 62 62 61 61 62 61 62 62 61 61 61 60 60 61 60
39 40 40 41 41 41 42 45 47 51 65 66 63 62 60 60 61 61 61 61 59 60 59 60 60 60 59 60 59 60 60 60
38 39 39 40 40 41 42 44 46 50 55 62 62 61 61 60 60 59 60 59 59 59 58 58 58 58 60 59 59 59 60 60
36 37 38 39 39 39 40 43 45 47 50 57 60 60 59 60 59 59 59 59 59 59 59 58 57 57 56 56 56 56 57 58
36 36 36 37 37 38 38 40 42 44 48 53 59 59 59 58 58 58 58 58 58 58 57 57 56 56 56 56 54 57 57 57
34 34 34 34 35 36 37 39 41 43 45 52 57 58 58 58 58 58 58 58 58 58 57 57 56 56 56 55 56 56 56 57
33 33 33 33 34 35 36 37 40 42 42 42 44 50 57 57 58 58 58 58 57 56 58 57 56 55 56 56 56 55 55 53
32 31 32 32 33 33 35 36 38 40 40 39 38 41 45 50 53 55 55 55 54 52 50 48 47 46 45 46 53 54 52 48
31 31 31 31 31 32 33 33 35 38 37 37 38 37 38 39 42 44 43 42 42 42 41 41 40 40 38 40 45 48 47 45
29 29 29 30 30 31 30 32 33 34 35 36 37 36 34 34 36 37 37 37 37 36 36 36 35 37 37 39 39 41 39 39
28 29 29 29 30 29 30 31 32 31 31 33 34 35 33 33 33 33 33 34 33 34 33 34 35 36 36 36 37 37 35 35

GFSFLT1_sfc_temp_105.txt.gz
Temp
64 64 64 64 65 64 66 69 72 74 72 72 70 71 71 70 69 69 69 69 69 69 69 68 67 65 65 65 64 65 66 66
62 61 62 61 62 62 62 62 65 71 73 70 67 66 69 68 69 70 69 69 68 69 68 68 66 66 65 65 64 62 62 64
59 60 59 58 58 59 60 61 63 66 74 75 74 72 69 70 69 69 70 69 68 69 68 67 66 65 65 65 64 62 62 63
55 55 56 57 57 56 58 60 60 62 65 74 74 69 68 66 66 66 68 70 69 69 68 67 65 65 65 65 65 65 60 62
53 52 53 54 54 55 56 56 58 61 64 69 71 69 67 69 71 70 67 69 68 69 68 67 66 66 65 65 66 65 64 60
49 50 51 53 53 52 53 53 55 58 61 64 70 70 73 74 73 71 68 67 69 68 67 67 67 66 65 65 65 64 63 62
48 49 50 51 52 51 49 49 51 54 57 60 66 70 71 70 71 69 67 66 66 66 66 66 66 65 65 67 64 64 63 62
46 46 46 47 46 46 46 46 47 51 53 58 65 67 69 70 70 70 66 64 63 65 65 65 65 65 66 67 64 63 63 62
45 45 45 44 42 42 43 43 44 49 51 54 65 67 66 69 70 71 68 65 65 66 64 66 66 65 66 67 67 65 62 61
41 43 43 42 39 40 40 41 44 47 50 53 67 67 65 65 68 70 67 66 65 64 64 65 65 64 65 65 62 63 65 62
40 41 40 41 39 39 40 41 42 45 48 51 61 65 65 65 65 67 67 65 65 62 63 64 63 64 64 63 62 64 60 60
40 39 39 39 38 38 38 39 41 43 45 49 53 61 63 62 62 63 63 63 62 62 63 62 62 63 65 63 65 59 59 59
38 38 37 37 36 36 37 38 39 42 44 47 56 60 60 60 60 60 61 61 62 62 62 61 61 61 62 60 59 59 59 60
36 36 35 35 35 35 36 37 38 41 43 44 47 48 57 60 59 59 60 59 60 61 60 60 59 58 58 58 60 61 62 63
34 34 34 33 34 34 34 35 37 39 41 41 40 42 44 49 60 59 59 59 59 59 60 59 59 59 59 60 59 61 59 56
32 31 32 33 32 32 33 34 35 37 39 39 38 39 40 41 43 48 57 59 56 58 55 50 50 51 48 55 60 58 53 48
31 31 31 31 31 30 31 32 33 35 36 36 38 38 37 37 37 39 40 41 42 42 41 41 41 41 38 39 47 50 49 46
29 29 30 30 30 30 29 30 32 32 33 34 35 36 36 35 35 34 34 35 36 36 36 37 36 37 37 38 39 43 41 41
28 29 29 30 29 30 31 30 29 29 30 31 32 33 34 34 34 32 32 33 32 33 34 35 35 36 36 36 36 37 36 36

GFSFLT1_sfc_temp_108.txt.gz
Temp
72 72 73 74 75 74 74 75 74 76 81 82 83 83 82 84 84 83 79 79 76 72 72 73 70 69 71 71 70 71 71 70
71 70 71 71 72 71 71 71 72 74 77 80 80 74 77 81 83 81 79 77 73 71 71 70 69 69 69 70 70 68 67 69
68 69 69 67 68 68 68 69 70 71 74 78 82 81 80 80 81 79 76 75 73 71 71 69 69 70 69 69 67 64 66 68
65 65 66 67 66 65 65 67 67 68 69 73 76 81 81 79 77 76 74 74 72 70 71 70 69 71 69 69 66 66 62 64
63 62 63 63 64 64 65 64 65 66 67 68 70 75 77 80 79 79 73 72 74 71 71 71 71 71 69 70 68 70 69 63
59 60 61 63 62 61 61 61 61 63 62 61 63 68 77 81 80 76 71 70 71 72 72 72 71 70 70 69 67 70 73 70
59 60 60 61 60 58 57 56 57 58 57 57 58 60 68 76 79 75 70 69 68 69 71 71 72 69 68 68 71 71 69 72
56 56 56 56 56 54 53 51 50 53 51 52 55 56 64 69 76 76 72 69 66 67 69 69 69 69 71 70 71 71 71 70
55 54 54 54 53 51 48 44 44 46 47 49 51 53 58 70 72 71 74 72 68 68 68 70 70 70 68 69 70 71 70 69
53 53 52 50 49 47 41 40 41 43 44 46 49 51 56 69 75 70 70 73 70 68 67 67 68 67 66 68 68 69 68 67
51 51 50 47 45 43 40 39 39 41 43 45 48 50 56 71 74 70 69 73 71 70 68 65 65 65 65 67 68 69 66 67
50 50 49 47 45 42 39 37 37 39 42 44 46 53 65 71 69 69 69 70 69 68 67 64 64 64 64 64 65 67 66 66
48 48 47 44 44 41 36 35 34 38 41 44 46 50 55 62 64 67 67 65 65 64 64 63 63 64 65 65 65 66 66 65
46 45 43 39 38 35 34 35 35 36 40 43 43 45 46 50 60 61 62 62 62 62 62 62 62 63 63 65 66 65 65 66
42 42 41 37 35 34 33 34 35 36 38 39 40 41 43 44 47 53 59 60 60 60 61 62 62 63 65 65 63 62 62 62
37 39 38 36 34 32 32 33 33 35 35 35 36 40 40 39 40 42 44 50 56 58 58 58 57 58 56 63 64 63 59 56
35 36 36 34 34 32 31 31 31 34 33 32 33 36 38 38 37 38 38 39 40 42 43 45 44 42 39 40 55 58 53 51
32 33 33 33 33 32 31 31 31 31 31 33 33 34 33 35 36 35 34 34 35 36 36 37 37 38 38 39 40 44 42 42
30 32 32 32 32 32 33 32 31 30 29 30 32 32 32 33 33 32 32 31 32 32 32 33 34 35 36 36 36 36 35 36

GFSFLT1_sfc_temp_111.txt.gz
Temp
80 78 78 78 78 77 77 77 76 77 78 80 85 86 87 87 87 88 85 86 85 84 83 79 77 75 76 81 76 75 78 79
77 76 76 75 75 75 74 73 74 75 76 78 81 82 84 86 87 86 86 85 83 82 82 77 76 72 75 72 73 70 69 77
73 73 73 72 72 72 71 72 73 73 74 76 77 79 84 86 86 86 86 84 81 80 79 76 76 72 72 70 69 67 68 72
70 69 70 70 70 69 69 70 71 71 71 73 75 77 78 80 84 84 85 84 82 78 75 76 77 73 71 70 69 68 67 67
68 68 68 68 68 68 68 68 68 69 69 69 68 68 71 80 84 85 84 83 80 77 76 73 77 73 71 70 70 70 72 64
66 66 67 68 68 66 65 64 65 65 64 64 64 64 68 73 78 81 82 81 79 73 73 74 74 74 73 72 69 70 71 70
65 66 66 66 66 63 62 60 60 60 59 58 56 56 59 64 69 74 81 82 79 73 72 70 73 73 71 72 72 71 72 72
63 63 63 62 61 60 59 57 54 55 54 54 53 53 54 56 62 70 73 77 75 72 69 69 69 71 72 74 72 68 72 72
61 61 61 60 58 57 55 53 50 51 50 50 49 48 51 55 60 66 72 77 78 75 68 68 70 70 72 72 73 69 69 70
59 60 59 58 56 54 51 48 47 47 46 46 45 46 48 50 54 61 69 75 76 74 69 67 68 68 69 70 71 71 69 68
58 58 57 56 54 53 49 46 44 44 44 41 43 44 47 49 52 55 65 75 76 74 72 68 66 67 67 68 69 70 70 68
56 56 55 54 51 50 47 42 42 40 39 39 41 44 47 50 55 58 67 72 74 72 69 67 66 66 66 66 68 68 67 66
55 54 53 50 47 45 42 40 38 36 36 37 40 44 45 48 51 62 68 71 73 72 69 67 66 65 65 66 68 69 66 66
52 51 49 46 44 42 40 38 35 34 33 36 38 41 42 43 46 50 53 67 71 69 67 66 65 64 63 66 69 67 65 66
47 47 46 43 42 40 38 36 35 34 34 36 35 36 38 40 43 44 47 50 59 61 62 62 63 63 63 64 67 68 65 65
42 41 40 41 39 37 37 35 33 33 34 34 32 35 36 38 39 39 41 42 44 46 53 53 57 59 58 62 65 65 61 58
38 38 36 35 34 35 35 35 32 32 32 32 33 34 33 34 36 36 36 37 37 38 38 40 41 45 43 48 57 59 57 53
34 32 32 32 32 33 33 34 34 32 32 32 33 33 32 32 34 33 32 33 35 35 36 36 35 38 40 43 43 45 43 42
31 31 32 32 32 33 33 33 33 33 32 32 32 32 32 32 31 30 31 31 30 30 31 33 34 33 35 36 36 37 35 35

GFSFLT1_sfc_temp_114.txt.gz
Temp
77 77 75 76 75 74 73 71 71 70 70 71 71 72 77 79 79 79 77 79 79 77 76 74 74 72 71 72 71 70 70 70
76 74 73 73 72 71 70 69 69 69 69 68 69 68 73 75 79 78 78 78 78 77 76 73 72 72 72 71 70 68 67 69
72 72 70 69 68 67 67 68 67 67 68 67 67 68 69 71 71 74 79 78 77 77 76 74 73 71 71 71 69 65 67 67
69 69 68 67 67 65 65 65 65 65 65 66 67 67 68 69 71 74 76 76 77 76 75 75 72 71 70 71 69 67 66 67
68 67 66 65 64 64 64 63 63 64 62 60 59 60 60 64 66 70 72 75 77 75 74 74 72 71 69 69 70 69 69 65
64 64 65 66 64 61 60 61 61 60 58 57 56 55 57 59 60 61 65 69 74 76 74 72 72 71 70 69 69 68 69 67
64 65 65 63 62 59 58 57 57 56 55 54 52 52 53 53 55 56 59 64 69 73 74 71 69 70 69 69 69 68 69 69
61 60 60 59 58 57 56 54 52 52 51 51 51 50 50 49 51 53 55 59 62 67 71 70 69 70 70 70 69 68 68 68
59 59 58 57 56 54 53 50 48 48 48 47 47 47 47 48 49 51 53 56 61 65 69 70 68 69 69 69 68 69 68 67
57 58 56 55 53 51 49 47 45 45 44 44 43 44 45 45 47 49 50 53 58 60 64 68 68 68 68 69 68 67 67 66
55 55 54 53 51 49 46 45 43 42 41 41 41 42 43 45 47 47 49 51 54 57 61 68 68 67 67 67 67 68 65 66
53 53 53 51 49 47 44 42 40 38 38 38 38 41 42 44 45 46 49 52 53 55 60 67 67 66 67 66 67 67 67 66
52 51 50 48 45 43 41 39 37 36 36 37 37 39 40 41 42 45 47 50 58 57 62 67 68 66 65 66 66 66 66 64
48 47 45 44 42 40 39 38 36 35 35 36 36 36 37 38 40 42 44 48 51 59 65 66 67 67 65 65 66 65 65 65
43 42 41 39 38 38 36 36 36 35 35 35 34 35 35 35 38 39 39 42 43 45 55 63 65 64 65 65 65 64 65 65
40 38 37 36 35 35 35 34 34 34 33 33 33 34 35 35 35 36 36 35 38 41 41 42 45 47 51 60 64 63 63 56
36 36 34 33 33 33 33 33 33 34 33 32 33 33 33 33 33 33 34 34 34 35 37 38 38 39 38 43 57 61 55 49
32 31 31 31 31 32 31 32 33 33 33 33 33 33 32 31 31 31 30 30 32 31 33 35 35 36 37 40 42 45 45 46
30 30 30 31 32 32 32 32 32 32 32 32 33 33 32 32 32 30 29 29 29 29 30 31 33 34 37 36 36 36 36 35

GFSFLT1_sfc_temp_117.txt.gz
Temp
67 66 66 64 63 64 64 65 64 64 64 64 65 65 65 67 70 68 70 73 74 72 74 72 69 68 67 68 69 66 67 66
65 64 63 62 61 62 61 61 60 61 61 59 61 60 63 64 63 65 67 70 74 74 70 68 68 71 71 66 65 67 64 65
63 61 59 58 58 58 59 59 59 59 59 59 59 59 59 63 64 64 64 65 70 70 71 70 70 67 66 67 65 62 64 66
61 60 56 56 55 54 56 56 56 56 56 56 56 57 58 58 60 62 63 64 66 68 71 72 69 68 66 67 66 64 64 63
59 57 55 54 52 54 54 55 54 56 53 52 50 49 49 53 54 56 57 60 62 64 66 70 70 70 67 66 67 67 65 63
55 55 54 53 52 51 50 51 52 51 50 49 48 47 49 51 52 52 53 56 58 61 62 64 69 68 67 67 65 66 65 64
55 55 54 51 50 49 47 48 48 48 47 47 45 44 45 46 47 47 49 52 54 57 60 61 65 69 67 66 65 65 68 68
52 51 49 49 46 45 47 45 44 44 44 44 45 45 45 45 46 47 47 48 50 52 55 58 61 67 69 68 65 65 66 67
51 48 47 46 45 42 41 41 41 41 41 40 42 43 43 44 44 46 47 48 49 51 52 54 57 60 67 68 67 66 67 66
49 47 46 44 43 41 39 39 39 39 38 38 38 40 41 41 43 45 45 47 49 50 50 52 55 58 63 67 66 66 66 66
48 45 44 43 42 41 40 38 37 37 36 36 38 38 40 41 42 42 45 47 48 49 49 50 52 56 61 65 64 66 66 66
44 44 43 41 40 39 38 37 36 35 35 36 37 38 39 40 40 41 43 45 46 48 50 51 52 54 59 65 64 66 66 66
42 41 40 38 37 37 36 35 34 35 36 36 37 38 38 38 38 40 42 42 44 46 50 53 53 54 58 64 64 67 65 65
39 38 37 36 36 36 35 34 34 35 35 35 36 36 36 36 37 38 39 40 42 44 45 49 55 56 58 64 65 65 65 65
37 35 35 35 35 34 34 33 35 35 35 34 34 34 34 34 35 36 36 38 38 39 43 43 46 49 58 63 64 65 65 65
34 33 33 32 33 32 32 33 34 34 34 33 33 33 33 33 33 33 34 35 35 36 37 39 40 41 44 49 59 64 63 58
32 32 32 31 31 31 32 32 32 33 32 32 32 33 33 32 32 32 32 31 32 33 32 34 35 38 38 41 51 59 53 47
30 30 29 30 30 31 30 31 32 31 31 31 32 32 32 32 32 31 30 30 31 31 31 32 32 33 35 36 37 38 38 41
26 27 28 29 30 31 32 32 31 30 29 30 31 31 31 31 32 31 30 30 29 30 30 31 31 32 34 34 34 35 33 34

GFSFLT1_sfc_temp_120.txt.gz
Temp
61 59 59 58 58 59 59 59 58 57 57 58 58 58 60 60 61 63 65 67 68 70 69 69 66 66 68 68 69 67 67 67
59 59 57 57 57 56 56 55 55 55 55 53 53 53 56 57 59 61 62 62 64 64 68 69 68 67 67 67 67 64 63 64
57 55 54 53 53 54 54 54 52 52 53 52 51 51 52 56 56 56 58 57 58 61 61 64 68 68 68 65 67 63 65 64
54 52 50 51 50 51 51 51 50 49 50 50 50 51 51 51 51 53 54 55 56 57 59 61 63 66 67 66 66 66 63 62
52 50 48 48 47 48 49 49 48 49 48 46 44 43 43 46 48 50 51 53 53 55 56 57 58 61 64 66 66 65 65 62
48 48 47 47 47 45 46 47 46 45 44 44 42 41 43 44 46 46 47 49 51 53 53 55 56 58 61 64 63 64 64 63
49 50 48 45 45 44 43 43 42 43 42 41 40 39 40 41 41 42 44 46 48 49 51 51 54 56 59 62 65 64 63 63
46 45 45 44 42 39 42 40 39 40 39 38 38 38 39 40 42 43 44 44 45 46 47 48 49 52 56 58 62 64 63 63
43 43 42 43 41 39 38 37 37 37 37 36 37 37 37 39 42 43 43 44 44 46 46 47 48 49 51 54 57 63 64 63
42 42 41 40 39 38 37 35 35 36 35 36 36 37 38 39 40 42 42 44 46 47 48 48 49 49 50 52 54 58 64 64
40 39 39 38 38 36 35 35 35 35 36 36 37 37 39 40 40 39 41 42 44 44 45 46 47 49 50 51 52 57 62 63
39 38 38 37 36 35 34 34 35 35 35 36 37 37 38 39 38 39 40 41 42 42 43 44 46 47 50 51 52 54 59 62
36 36 35 34 34 33 33 34 34 35 36 37 36 37 37 36 36 37 38 38 40 40 42 43 46 47 50 51 52 54 57 61
33 32 32 33 34 32 33 34 34 35 35 35 35 35 35 34 34 35 36 36 38 39 39 41 43 45 46 54 53 53 57 62
33 32 32 33 32 32 32 33 34 34 33 33 33 33 34 34 34 34 34 35 35 36 37 38 39 41 42 47 54 54 58 63
32 31 31 31 31 32 32 32 32 32 32 31 31 33 33 34 33 32 32 33 34 34 35 35 37 37 39 39 48 57 59 60
31 30 30 29 30 30 30 30 30 31 30 30 30 31 32 31 32 31 31 30 31 32 32 33 33 36 35 38 44 44 45 44
28 27 27 28 28 29 29 29 30 29 28 29 29 28 28 30 30 30 29 28 29 28 30 32 32 32 34 35 36 36 37 37
26 26 26 27 28 29 31 31 28 27 26 26 28 27 26 28 28 27 28 28 27 27 28 30 31 32 33 34 35 33 33 32

GFSFLT1_sfc_temp_123.txt.gz
Temp
56 55 55 54 53 54 54 53 53 53 52 53 53 53 54 55 56 57 60 60 62 64 63 63 65 66 65 65 66 66 66 66
53 53 52 52 52 52 51 50 50 51 50 48 48 47 50 51 53 55 56 55 57 58 60 61 64 64 64 66 66 65 64 63
51 50 49 48 48 49 48 48 47 48 48 46 47 46 48 50 50 51 52 52 55 56 56 59 60 61 64 66 65 64 63 63
48 48 46 45 44 44 46 45 46 45 46 46 46 46 47 47 46 47 49 50 51 51 53 54 55 58 59 61 64 63 62 62
45 44 43 44 44 45 44 45 44 45 44 42 40 39 39 42 43 45 46 48 49 50 51 51 52 54 55 58 62 63 62 60
42 42 42 43 43 42 42 42 42 42 41 40 39 37 39 41 42 42 43 45 47 48 48 48 49 51 53 55 57 61 64 63
45 46 46 43 42 41 42 40 40 39 38 37 36 35 35 36 38 39 41 44 45 46 46 46 46 48 49 52 55 57 62 64
42 41 41 41 40 39 40 38 37 37 36 36 35 35 35 36 37 38 39 42 44 44 44 44 45 47 48 48 49 51 54 61
39 38 38 37 38 38 36 36 35 36 37 37 38 38 38 39 40 39 40 41 43 45 45 46 47 48 49 50 49 50 52 55
39 38 37 36 36 36 34 34 35 36 36 37 37 38 38 38 40 40 40 42 43 44 44 44 45 46 47 48 48 48 51 53
38 37 37 37 35 36 36 35 35 36 37 37 37 37 38 39 39 38 39 40 41 41 42 42 43 44 46 47 48 49 49 51
36 36 36 36 35 33 34 35 35 35 35 36 37 37 37 37 36 37 37 38 38 39 40 41 41 42 45 46 47 49 49 51
32 32 33 34 32 34 33 34 33 34 35 34 35 36 36 36 35 36 36 36 37 37 38 39 40 42 43 44 45 49 50 51
30 31 32 32 32 33 33 33 33 33 34 33 33 34 34 34 34 34 35 35 35 36 37 37 37 39 40 42 44 45 48 51
33 32 31 32 32 32 32 32 33 32 33 32 30 31 32 32 33 33 33 33 32 33 35 36 36 37 38 39 40 43 46 54
31 31 30 30 31 31 31 31 31 31 29 29 28 29 30 31 30 31 31 31 31 32 32 34 35 36 37 36 40 42 44 52
30 30 29 28 29 29 28 27 28 28 27 27 27 28 28 28 28 28 29 29 29 29 29 31 32 34 35 36 37 39 41 41
27 27 28 28 28 28 25 23 25 25 24 25 26 26 25 25 27 26 26 26 27 27 28 30 30 32 34 35 34 34 34 34
26 26 26 24 22 23 26 25 26 24 23 23 24 24 24 24 24 24 24 25 25 26 27 28 29 31 33 33 33 32 32 32

GFSFLT1_sfc_temp_126.txt.gz
Temp
49 49 50 49 49 49 49 49 48 49 51 51 51 51 52 53 52 53 53 54 56 56 60 62 62 62 63 64 65 66 66 67
48 47 46 46 47 46 46 46 45 46 46 45 46 45 48 49 49 51 51 51 52 52 53 56 59 60 61 62 63 64 64 65
45 45 44 43 43 44 44 44 44 43 43 44 43 44 46 47 47 48 48 48 49 51 50 52 55 56 58 62 61 61 61 63
42 43 41 41 41 41 42 42 42 42 41 42 42 44 44 44 43 44 45 47 48 48 49 50 51 52 54 56 58 61 61 62
43 43 42 40 39 41 41 43 42 42 40 38 37 36 36 39 40 42 43 45 46 47 47 48 48 49 51 53 57 58 60 59
43 43 44 43 42 41 40 40 40 39 39 37 35 34 35 38 38 39 41 43 44 45 46 45 45 46 47 49 50 53 57 58
44 44 44 42 42 41 41 39 38 38 38 38 37 36 36 36 38 39 41 42 42 44 44 43 44 45 45 47 48 48 51 55
41 40 39 39 37 37 38 37 36 38 38 38 38 38 38 37 38 39 39 40 41 43 44 44 45 47 48 48 48 48 48 48
40 39 37 36 36 37 36 35 35 36 37 37 39 39 38 38 39 39 39 40 41 43 44 44 44 46 46 47 47 48 48 48
37 37 36 34 34 34 33 34 35 35 36 36 37 38 38 37 38 39 39 40 41 42 41 42 43 43 44 45 46 47 48 48
35 35 35 35 34 34 35 35 35 35 36 35 37 37 38 38 38 37 37 38 39 39 39 40 41 42 43 43 44 46 47 48
31 32 33 33 33 35 35 35 34 34 34 35 35 35 36 37 36 35 35 36 37 37 38 39 40 40 42 42 44 45 45 47
30 30 31 31 33 34 33 33 33 33 34 34 33 34 35 34 34 34 34 34 35 35 37 37 38 38 39 40 40 42 43 45
29 29 32 32 33 33 33 33 32 33 33 32 32 31 32 31 31 32 33 33 33 34 35 35 36 37 38 39 39 39 41 43
30 30 31 32 32 32 31 30 31 31 31 31 29 29 29 30 30 30 30 31 31 32 33 34 34 36 37 37 37 39 39 42
31 30 30 30 30 27 28 27 27 27 28 27 26 28 28 28 28 28 29 29 30 30 31 32 33 34 35 35 37 38 39 42
30 28 27 27 27 28 28 27 25 26 24 24 25 26 26 26 26 26 27 27 28 28 28 29 30 32 33 34 35 34 35 35
28 25 25 24 24 27 26 26 27 25 23 24 24 24 24 24 25 25 24 25 27 26 26 27 27 30 32 32 32 32 32 32
24 22 22 23 24 26 28 28 26 24 23 23 24 23 23 24 23 23 23 25 25 26 25 26 26 29 32 31 31 29 29 30

GFSFLT1_sfc_temp_129.txt.gz
Temp
50 51 52 52 53 52 52 52 51 53 56 58 61 61 61 61 59 58 57 58 59 60 63 62 64 66 68 66 65 66 68 71
51 51 51 52 51 51 50 50 49 50 51 53 55 54 57 59 57 55 55 55 56 57 58 60 62 61 63 65 67 66 64 67
50 50 50 49 49 49 49 48 48 48 49 50 51 52 55 56 54 54 53 53 54 56 55 56 58 59 61 63 63 63 66 69
48 49 47 48 47 47 47 48 47 46 46 48 50 52 53 53 50 51 50 51 52 53 54 54 55 56 56 58 61 59 60 67
48 48 46 45 44 45 45 46 46 46 46 45 44 43 43 45 46 48 49 50 50 51 52 52 52 53 53 55 58 57 58 59
48 48 46 44 44 43 43 43 43 43 45 45 44 43 44 46 45 45 47 48 49 50 50 49 49 50 51 51 53 55 57 56
47 46 46 45 46 44 43 41 42 41 42 43 43 41 41 41 42 42 44 46 46 47 46 46 47 47 48 48 49 49 50 53
44 44 43 43 42 41 42 42 40 41 40 42 42 41 41 40 40 39 39 41 43 44 45 45 46 46 47 48 48 48 49 49
43 42 42 41 40 40 40 40 40 41 41 40 42 42 41 40 40 39 39 40 41 43 43 43 44 45 45 46 46 47 49 49
41 41 41 40 39 39 37 38 39 39 38 37 39 40 39 39 40 40 39 41 42 41 41 41 41 42 43 43 44 45 46 48
39 39 39 39 39 40 39 38 37 37 37 37 37 38 38 39 38 37 38 39 39 38 38 39 40 41 42 42 42 44 44 46
38 38 39 38 39 39 37 36 35 36 36 36 36 36 36 37 37 36 36 37 37 37 37 37 38 39 40 40 40 41 43 45
37 37 38 37 37 37 36 35 34 34 35 35 35 35 35 35 35 35 36 35 36 36 36 37 37 37 39 38 38 40 40 40
36 36 36 35 35 35 35 35 34 34 35 34 34 33 33 33 33 33 34 34 35 36 37 37 36 36 36 37 38 38 39 40
36 35 34 34 34 34 34 34 34 33 33 32 32 31 31 32 32 32 33 34 34 34 34 35 35 34 34 34 36 37 38 40
34 33 33 33 34 34 34 32 32 32 30 29 28 29 30 30 30 30 31 32 33 32 32 32 34 34 33 32 33 34 35 36
31 32 32 32 32 32 32 30 29 30 29 27 27 28 28 27 28 29 29 30 29 29 28 29 30 33 32 32 32 31 31 32
30 30 30 30 30 31 30 29 30 28 27 27 26 26 26 26 27 27 27 28 29 28 27 28 28 30 32 31 31 30 28 28
29 29 29 29 30 31 31 30 28 27 26 26 26 25 25 27 26 26 26 29 28 27 27 27 27 28 31 30 29 28 27 27

GFSFLT1_sfc_temp_135.txt.gz
Temp
66 68 69 70 69 68 67 65 64 67 69 70 72 71 72 73 70 68 66 67 66 67 71 70 71 73 73 70 68 70 73 73
66 66 68 68 66 65 64 62 62 65 67 66 67 66 69 70 70 67 66 64 64 65 67 67 69 69 68 69 71 66 65 71
64 65 65 63 62 62 62 62 61 61 64 65 65 66 68 69 68 67 65 63 63 64 62 63 65 65 65 67 67 67 67 68
64 62 61 62 60 61 62 62 61 60 60 63 63 65 66 65 64 65 63 63 62 61 61 61 60 61 62 63 64 64 64 68
65 63 62 61 61 61 61 61 60 60 59 60 58 59 58 60 61 62 61 62 61 61 59 58 57 58 57 59 63 60 61 61
63 62 63 62 61 60 60 61 59 59 58 57 57 55 57 59 58 56 58 59 59 60 57 55 54 54 54 53 54 55 56 56
63 62 62 61 61 60 59 59 58 57 56 55 54 52 52 52 52 52 54 55 56 55 53 51 49 50 50 50 50 50 50 51
61 61 61 59 58 58 58 57 54 55 54 53 52 51 50 50 49 48 47 48 49 48 47 46 47 47 47 47 47 47 48 48
59 59 59 58 56 56 56 55 53 52 51 51 51 50 49 49 47 46 46 44 45 45 45 45 45 46 46 45 45 45 46 47
59 58 57 57 56 53 52 52 52 50 50 50 50 49 47 45 45 45 43 43 44 44 44 43 43 44 45 44 43 43 44 44
57 57 56 56 55 54 51 50 50 50 50 50 49 47 46 45 44 41 41 41 42 42 42 42 42 43 43 43 42 43 43 43
56 57 56 55 54 53 51 49 48 48 48 48 47 45 44 43 42 41 40 41 41 41 41 41 41 41 41 41 41 41 40 40
57 55 54 54 53 53 51 50 47 45 47 47 45 44 44 42 40 41 40 40 41 40 40 39 39 39 39 38 38 39 38 37
54 53 53 52 51 50 50 49 47 47 47 46 45 44 43 41 40 39 39 39 39 39 39 38 37 37 36 37 38 38 37 37
53 52 52 51 50 49 48 46 47 47 45 43 41 41 41 41 41 40 39 39 38 37 37 37 36 36 35 35 37 36 35 35
52 51 49 49 47 47 46 45 44 45 41 38 37 38 39 38 38 39 40 39 39 36 36 36 36 35 34 33 34 34 32 32
50 48 47 44 43 44 42 40 40 40 38 33 32 35 34 33 34 35 37 37 36 33 33 34 33 34 32 32 32 32 30 29
45 43 41 40 41 42 39 38 39 36 33 32 32 32 31 31 33 34 32 32 33 32 31 31 30 30 31 31 32 31 30 27
39 38 38 39 40 38 37 36 34 33 31 31 31 31 31 32 31 31 31 32 31 31 30 30 30 29 30 30 30 30 29 27

GFSFLT1_sfc_temp_138.txt.gz
Temp
67 68 67 67 65 63 62 61 60 61 63 63 64 64 64 64 62 61 60 60 60 59 61 60 62 63 63 63 62 65 64 64
66 66 65 64 62 62 61 59 58 59 60 59 60 59 61 62 62 61 59 59 59 58 57 58 59 58 58 60 61 60 61 63
64 64 62 61 60 60 60 60 58 58 59 60 59 59 60 61 60 60 58 58 57 58 56 55 55 54 56 56 57 57 59 62
63 62 61 61 59 58 59 58 57 56 56 58 58 59 58 57 58 58 56 58 56 56 55 53 52 53 52 52 53 52 51 55
64 62 61 59 58 58 59 58 57 57 55 54 53 52 51 53 53 54 55 55 55 55 51 50 49 49 49 49 52 49 49 48
63 62 61 60 59 57 57 57 56 55 54 53 51 49 51 52 51 50 50 51 52 51 47 47 45 47 47 46 47 47 48 47
63 62 62 59 59 57 56 55 54 54 53 51 49 47 47 47 46 45 45 47 47 46 46 45 45 45 45 45 46 45 45 46
60 59 60 58 56 55 55 54 51 51 51 50 48 47 46 45 44 43 43 42 42 43 43 43 43 44 44 44 44 44 44 44
61 61 59 56 55 54 53 52 50 50 49 48 48 47 45 44 43 43 42 41 42 43 42 43 43 43 43 43 42 43 44 43
59 59 57 55 53 51 50 50 49 49 48 48 46 45 44 43 42 42 41 41 42 42 42 41 42 42 42 41 41 40 41 41
58 57 55 55 53 51 49 49 48 48 48 47 46 44 44 43 42 40 40 41 41 41 40 40 40 40 40 40 39 40 39 39
57 56 55 54 53 51 49 48 47 46 47 46 45 44 43 42 40 40 40 40 40 39 39 39 38 37 37 37 37 38 37 37
56 56 53 52 53 51 49 48 45 45 46 45 44 43 42 40 39 39 39 39 39 39 38 37 37 36 35 35 35 36 35 34
55 54 52 52 51 51 49 48 46 46 45 44 42 41 40 39 38 39 40 39 38 38 38 36 35 34 33 34 35 34 33 33
53 52 52 51 50 49 47 45 46 45 43 41 39 38 38 37 38 38 38 38 35 35 36 35 33 32 33 33 33 32 31 31
50 51 49 48 47 46 45 44 43 42 38 35 35 36 36 36 36 36 35 35 34 33 33 33 31 31 32 32 32 31 29 28
52 50 48 47 45 43 41 40 39 38 34 30 30 33 32 31 33 32 33 33 32 30 29 30 28 31 32 33 31 29 28 26
48 46 43 42 41 40 37 37 37 34 31 31 29 29 28 27 31 31 29 29 29 28 27 27 26 26 31 32 31 26 24 23
42 39 39 38 38 37 36 35 33 31 29 28 30 28 25 29 26 29 27 29 28 27 26 25 25 26 31 30 30 24 23 23

GFSFLT1_sfc_temp_141.txt.gz
Temp
59 58 57 55 54 54 54 54 53 53 53 55 56 55 55 55 55 55 54 55 56 54 54 54 55 54 55 55 55 57 56 59
58 56 54 54 53 53 52 51 51 51 50 50 51 50 52 54 55 55 54 54 54 52 52 51 51 51 52 53 53 52 54 55
57 54 53 51 51 51 51 50 50 49 49 49 49 49 50 51 53 52 53 53 52 51 48 48 48 47 48 48 48 47 49 52
55 55 51 49 49 49 50 49 48 48 48 48 48 48 48 48 48 48 49 50 47 46 46 45 44 45 44 44 44 45 43 46
56 53 49 48 48 49 49 49 48 49 47 45 43 42 41 43 44 45 46 47 46 45 44 43 43 43 43 44 46 46 45 42
54 52 50 49 48 47 46 47 47 46 45 44 41 40 41 42 42 41 42 43 44 44 43 42 42 44 44 44 44 44 45 44
54 53 53 48 47 46 45 46 45 45 44 43 41 39 39 39 38 38 39 40 41 42 43 43 43 43 42 42 43 44 43 44
52 51 49 48 46 45 45 45 44 44 43 42 41 40 39 38 37 36 37 37 38 38 40 40 41 42 42 42 41 41 42 41
52 51 48 47 46 44 44 44 43 43 42 42 41 40 39 38 36 36 37 37 38 38 38 39 40 40 39 40 40 40 41 40
51 50 47 45 43 43 42 43 43 43 42 40 39 39 38 36 36 36 38 37 40 37 37 37 37 37 36 38 38 38 38 38
51 50 48 45 44 43 42 42 42 42 41 40 39 39 41 40 37 37 37 37 37 38 36 37 35 35 34 35 36 36 35 35
47 49 49 46 45 44 42 41 41 40 40 39 38 37 39 39 39 38 36 36 39 37 35 35 33 33 33 33 35 33 32 31
48 50 48 46 45 44 42 40 39 40 40 39 37 37 36 34 35 35 34 33 35 35 34 33 31 32 32 31 33 31 29 28
47 46 46 47 46 44 43 41 39 39 38 36 35 35 34 33 33 33 33 32 32 34 32 30 30 30 31 32 33 30 28 28
46 45 45 43 43 43 42 40 38 38 36 34 32 31 31 31 32 32 32 31 30 31 30 29 30 30 31 31 30 28 27 27
45 43 43 42 41 41 40 38 36 35 32 30 29 30 30 31 30 30 30 29 29 29 29 28 29 30 32 28 27 26 24 24
44 45 44 43 40 37 37 34 34 33 28 26 25 29 28 26 27 27 28 28 26 26 26 26 26 30 32 32 27 24 24 22
45 44 40 37 35 36 34 33 32 29 27 27 25 24 24 19 25 26 22 21 22 23 21 22 22 26 31 31 29 22 21 19
37 35 34 33 33 34 32 31 29 27 24 24 27 23 18 22 17 15 16 17 15 15 20 20 21 25 31 29 28 16 15 18